Wetterdaten: Montag, 17.11.2014
Datum Zeit Temp. Aussen +5cm Feuchte Auss Luftdruck Regen Sonnenschein Regendauer Solar Windben
17.11.2014 00:00 8,0 C 6,7 C 99 % 1000,6 hPa 0,0 l/m 0 min 0 min 0 W/m 10,5 km/h (2 Bft)
17.11.2014 00:02 8,0 C 6,7 C 99 % 1000,6 hPa 0,0 l/m 0 min 0 min 0 W/m 4,2 km/h (1 Bft)
17.11.2014 00:05 7,9 C 6,7 C 98 % 1000,6 hPa 0,0 l/m 0 min 0 min 0 W/m 8,4 km/h (2 Bft)
17.11.2014 00:06 7,9 C 6,7 C 98 % 1000,6 hPa 0,0 l/m 0 min 0 min 0 W/m 6,3 km/h (2 Bft)
17.11.2014 00:08 7,9 C 6,7 C 98 % 1000,6 hPa 0,0 l/m 0 min 0 min 0 W/m 12,6 km/h (3 Bft)
17.11.2014 00:10 7,9 C 6,7 C 98 % 1000,6 hPa 0,0 l/m 0 min 0 min 0 W/m 8,4 km/h (2 Bft)
17.11.2014 00:12 7,9 C 6,7 C 98 % 1000,6 hPa 0,0 l/m 0 min 0 min 0 W/m 6,3 km/h (2 Bft)
17.11.2014 00:14 7,9 C 6,7 C 98 % 1000,6 hPa 0,0 l/m 0 min 0 min 0 W/m 6,3 km/h (2 Bft)
17.11.2014 00:16 7,9 C 6,7 C 98 % 1000,6 hPa 0,0 l/m 0 min 0 min 0 W/m 10,5 km/h (2 Bft)
17.11.2014 00:18 7,9 C 6,7 C 98 % 1000,7 hPa 0,0 l/m 0 min 0 min 0 W/m 10,5 km/h (2 Bft)
17.11.2014 00:20 7,8 C 6,7 C 98 % 1000,6 hPa 0,0 l/m 0 min 0 min 0 W/m 10,5 km/h (2 Bft)
17.11.2014 00:22 7,9 C 6,7 C 98 % 1000,7 hPa 0,0 l/m 0 min 0 min 0 W/m 8,4 km/h (2 Bft)
17.11.2014 00:24 7,8 C 6,7 C 98 % 1000,7 hPa 0,0 l/m 0 min 0 min 0 W/m 6,3 km/h (2 Bft)
17.11.2014 00:26 7,8 C 6,7 C 98 % 1000,7 hPa 0,0 l/m 0 min 0 min 0 W/m 8,4 km/h (2 Bft)
17.11.2014 00:28 7,8 C 6,7 C 98 % 1000,7 hPa 0,0 l/m 0 min 0 min 0 W/m 12,6 km/h (3 Bft)
17.11.2014 00:30 7,8 C 6,7 C 98 % 1000,8 hPa 0,0 l/m 0 min 0 min 0 W/m 6,3 km/h (2 Bft)
17.11.2014 00:32 7,9 C 6,7 C 98 % 1000,8 hPa 0,0 l/m 0 min 0 min 0 W/m 8,4 km/h (2 Bft)
17.11.2014 00:34 7,9 C 6,7 C 98 % 1000,8 hPa 0,0 l/m 0 min 0 min 0 W/m 8,4 km/h (2 Bft)
17.11.2014 00:36 7,9 C 6,7 C 98 % 1000,8 hPa 0,0 l/m 0 min 0 min 0 W/m 8,4 km/h (2 Bft)
17.11.2014 00:38 7,8 C 6,7 C 98 % 1000,7 hPa 0,0 l/m 0 min 0 min 0 W/m 10,5 km/h (2 Bft)
17.11.2014 00:40 7,8 C 6,7 C 98 % 1000,8 hPa 0,0 l/m 0 min 0 min 0 W/m 12,6 km/h (3 Bft)
17.11.2014 00:42 7,8 C 6,7 C 98 % 1000,8 hPa 0,0 l/m 0 min 0 min 0 W/m 14,6 km/h (3 Bft)
17.11.2014 00:44 7,8 C 6,7 C 98 % 1000,8 hPa 0,0 l/m 0 min 0 min 0 W/m 10,5 km/h (2 Bft)
17.11.2014 00:46 7,8 C 6,7 C 98 % 1000,8 hPa 0,0 l/m 0 min 0 min 0 W/m 16,7 km/h (3 Bft)
17.11.2014 00:48 7,8 C 6,7 C 98 % 1000,9 hPa 0,0 l/m 0 min 0 min 0 W/m 12,6 km/h (3 Bft)
17.11.2014 00:50 7,8 C 6,7 C 98 % 1000,8 hPa 0,0 l/m 0 min 0 min 0 W/m 10,5 km/h (2 Bft)
17.11.2014 00:52 7,8 C 6,7 C 98 % 1000,8 hPa 0,0 l/m 0 min 0 min 0 W/m 12,6 km/h (3 Bft)
17.11.2014 00:54 7,8 C 6,7 C 98 % 1000,8 hPa 0,0 l/m 0 min 0 min 0 W/m 14,6 km/h (3 Bft)
17.11.2014 00:56 7,8 C 6,7 C 98 % 1000,8 hPa 0,0 l/m 0 min 0 min 0 W/m 8,4 km/h (2 Bft)
17.11.2014 00:58 7,8 C 6,7 C 98 % 1000,9 hPa 0,0 l/m 0 min 0 min 0 W/m 8,4 km/h (2 Bft)
17.11.2014 01:00 7,8 C 6,7 C 98 % 1000,8 hPa 0,0 l/m 0 min 0 min 0 W/m 14,6 km/h (3 Bft)
17.11.2014 01:02 7,8 C 6,7 C 98 % 1000,8 hPa 0,0 l/m 0 min 0 min 0 W/m 8,4 km/h (2 Bft)
17.11.2014 01:04 7,8 C 6,7 C 98 % 1000,9 hPa 0,0 l/m 0 min 0 min 0 W/m 10,5 km/h (2 Bft)
17.11.2014 01:06 7,8 C 6,7 C 98 % 1000,8 hPa 0,0 l/m 0 min 0 min 0 W/m 10,5 km/h (2 Bft)
17.11.2014 01:08 7,8 C 6,7 C 98 % 1000,8 hPa 0,0 l/m 0 min 0 min 0 W/m 10,5 km/h (2 Bft)
17.11.2014 01:10 7,8 C 6,7 C 98 % 1000,8 hPa 0,0 l/m 0 min 0 min 0 W/m 10,5 km/h (2 Bft)
17.11.2014 01:12 7,8 C 6,7 C 98 % 1000,8 hPa 0,0 l/m 0 min 0 min 0 W/m 10,5 km/h (2 Bft)
17.11.2014 01:14 7,8 C 6,7 C 98 % 1000,8 hPa 0,0 l/m 0 min 0 min 0 W/m 8,4 km/h (2 Bft)
17.11.2014 01:16 7,8 C 6,7 C 98 % 1000,7 hPa 0,0 l/m 0 min 0 min 0 W/m 8,4 km/h (2 Bft)
17.11.2014 01:18 7,8 C 6,7 C 99 % 1000,7 hPa 0,0 l/m 0 min 0 min 0 W/m 10,5 km/h (2 Bft)
17.11.2014 01:20 7,8 C 6,7 C 99 % 1000,7 hPa 0,0 l/m 0 min 0 min 0 W/m 12,6 km/h (3 Bft)
17.11.2014 01:22 7,8 C 6,7 C 99 % 1000,7 hPa 0,0 l/m 0 min 0 min 0 W/m 8,4 km/h (2 Bft)
17.11.2014 01:24 7,8 C 6,7 C 99 % 1000,7 hPa 0,0 l/m 0 min 0 min 0 W/m 10,5 km/h (2 Bft)
17.11.2014 01:26 7,8 C 6,7 C 99 % 1000,8 hPa 0,0 l/m 0 min 0 min 0 W/m 10,5 km/h (2 Bft)
17.11.2014 01:28 7,8 C 6,7 C 99 % 1000,8 hPa 0,0 l/m 0 min 0 min 0 W/m 12,6 km/h (3 Bft)
17.11.2014 01:30 7,8 C 6,7 C 99 % 1000,8 hPa 0,0 l/m 0 min 0 min 0 W/m 14,6 km/h (3 Bft)
17.11.2014 01:32 7,8 C 6,7 C 99 % 1000,7 hPa 0,0 l/m 0 min 0 min 0 W/m 14,6 km/h (3 Bft)
17.11.2014 01:34 7,8 C 6,7 C 99 % 1000,7 hPa 0,0 l/m 0 min 0 min 0 W/m 14,6 km/h (3 Bft)
17.11.2014 01:36 7,8 C 6,7 C 99 % 1000,7 hPa 0,0 l/m 0 min 0 min 0 W/m 10,5 km/h (2 Bft)
17.11.2014 01:38 7,8 C 6,7 C 99 % 1000,7 hPa 0,0 l/m 0 min 0 min 0 W/m 16,7 km/h (3 Bft)
17.11.2014 01:40 7,8 C 6,7 C 99 % 1000,7 hPa 0,0 l/m 0 min 0 min 0 W/m 12,6 km/h (3 Bft)
17.11.2014 01:42 7,9 C 6,7 C 99 % 1000,8 hPa 0,0 l/m 0 min 0 min 0 W/m 14,6 km/h (3 Bft)
17.11.2014 01:44 7,9 C 6,7 C 99 % 1000,8 hPa 0,0 l/m 0 min 0 min 0 W/m 12,6 km/h (3 Bft)
17.11.2014 01:46 7,9 C 6,7 C 99 % 1000,8 hPa 0,0 l/m 0 min 0 min 0 W/m 14,6 km/h (3 Bft)
17.11.2014 01:48 7,9 C 6,7 C 99 % 1000,8 hPa 0,0 l/m 0 min 0 min 0 W/m 12,6 km/h (3 Bft)
17.11.2014 01:50 7,9 C 6,7 C 99 % 1000,9 hPa 0,0 l/m 0 min 0 min 0 W/m 10,5 km/h (2 Bft)
17.11.2014 01:52 7,9 C 6,7 C 99 % 1000,8 hPa 0,0 l/m 0 min 0 min 0 W/m 12,6 km/h (3 Bft)
17.11.2014 01:54 7,9 C 6,7 C 99 % 1000,8 hPa 0,0 l/m 0 min 0 min 0 W/m 14,6 km/h (3 Bft)
17.11.2014 01:56 7,9 C 6,7 C 99 % 1000,8 hPa 0,0 l/m 0 min 0 min 0 W/m 14,6 km/h (3 Bft)
17.11.2014 01:58 7,9 C 6,7 C 99 % 1000,8 hPa 0,0 l/m 0 min 0 min 0 W/m 18,8 km/h (3 Bft)
17.11.2014 02:00 7,9 C 6,7 C 99 % 1000,9 hPa 0,0 l/m 0 min 0 min 0 W/m 14,6 km/h (3 Bft)
17.11.2014 02:02 7,9 C 7,2 C 99 % 1000,9 hPa 0,0 l/m 0 min 0 min 0 W/m 10,5 km/h (2 Bft)
17.11.2014 02:04 8,0 C 7,2 C 99 % 1001,0 hPa 0,0 l/m 0 min 0 min 0 W/m 16,7 km/h (3 Bft)
17.11.2014 02:06 8,0 C 7,2 C 99 % 1001,0 hPa 0,0 l/m 0 min 0 min 0 W/m 20,9 km/h (4 Bft)
17.11.2014 02:08 8,0 C 7,2 C 99 % 1001,0 hPa 0,0 l/m 0 min 0 min 0 W/m 18,8 km/h (3 Bft)
17.11.2014 02:10 8,1 C 7,2 C 99 % 1000,9 hPa 0,0 l/m 0 min 0 min 0 W/m 16,7 km/h (3 Bft)
17.11.2014 02:12 8,1 C 7,2 C 99 % 1001,0 hPa 0,0 l/m 0 min 0 min 0 W/m 16,7 km/h (3 Bft)
17.11.2014 02:14 8,1 C 7,2 C 99 % 1000,9 hPa 0,0 l/m 0 min 0 min 0 W/m 20,9 km/h (4 Bft)
17.11.2014 02:16 8,1 C 7,2 C 99 % 1001,0 hPa 0,0 l/m 0 min 0 min 0 W/m 16,7 km/h (3 Bft)
17.11.2014 02:18 8,1 C 7,2 C 99 % 1001,0 hPa 0,0 l/m 0 min 0 min 0 W/m 20,9 km/h (4 Bft)
17.11.2014 02:20 8,2 C 7,2 C 99 % 1001,0 hPa 0,0 l/m 0 min 0 min 0 W/m 16,7 km/h (3 Bft)
17.11.2014 02:22 8,2 C 7,2 C 99 % 1001,0 hPa 0,0 l/m 0 min 0 min 0 W/m 18,8 km/h (3 Bft)
17.11.2014 02:24 8,2 C 7,2 C 99 % 1001,0 hPa 0,0 l/m 0 min 0 min 0 W/m 23,0 km/h (4 Bft)
17.11.2014 02:26 8,2 C 7,2 C 99 % 1001,0 hPa 0,0 l/m 0 min 0 min 0 W/m 27,2 km/h (4 Bft)
17.11.2014 02:28 8,2 C 7,2 C 99 % 1001,0 hPa 0,0 l/m 0 min 0 min 0 W/m 16,7 km/h (3 Bft)
17.11.2014 02:30 8,2 C 7,2 C 99 % 1001,0 hPa 0,0 l/m 0 min 0 min 0 W/m 23,0 km/h (4 Bft)
17.11.2014 02:32 8,3 C 7,2 C 99 % 1001,0 hPa 0,0 l/m 0 min 0 min 0 W/m 16,7 km/h (3 Bft)
17.11.2014 02:34 8,3 C 7,2 C 99 % 1001,1 hPa 0,0 l/m 0 min 0 min 0 W/m 20,9 km/h (4 Bft)
17.11.2014 02:36 8,3 C 7,2 C 99 % 1001,1 hPa 0,0 l/m 0 min 0 min 0 W/m 16,7 km/h (3 Bft)
17.11.2014 02:38 8,3 C 7,2 C 99 % 1001,2 hPa 0,0 l/m 0 min 0 min 0 W/m 25,1 km/h (4 Bft)
17.11.2014 02:40 8,3 C 7,2 C 99 % 1001,2 hPa 0,0 l/m 0 min 0 min 0 W/m 14,6 km/h (3 Bft)
17.11.2014 02:42 8,3 C 7,2 C 99 % 1001,2 hPa 0,0 l/m 0 min 0 min 0 W/m 20,9 km/h (4 Bft)
17.11.2014 02:44 8,3 C 7,2 C 99 % 1001,2 hPa 0,0 l/m 0 min 0 min 0 W/m 16,7 km/h (3 Bft)
17.11.2014 02:46 8,3 C 7,2 C 99 % 1001,1 hPa 0,0 l/m 0 min 0 min 0 W/m 25,1 km/h (4 Bft)
17.11.2014 02:48 8,3 C 7,2 C 99 % 1001,2 hPa 0,0 l/m 0 min 0 min 0 W/m 14,6 km/h (3 Bft)
17.11.2014 02:50 8,3 C 7,2 C 99 % 1001,2 hPa 0,0 l/m 0 min 0 min 0 W/m 18,8 km/h (3 Bft)
17.11.2014 02:52 8,3 C 7,2 C 99 % 1001,2 hPa 0,0 l/m 0 min 0 min 0 W/m 16,7 km/h (3 Bft)
17.11.2014 02:54 8,3 C 7,2 C 99 % 1001,1 hPa 0,0 l/m 0 min 0 min 0 W/m 18,8 km/h (3 Bft)
17.11.2014 02:56 8,3 C 7,2 C 99 % 1001,2 hPa 0,0 l/m 0 min 0 min 0 W/m 16,7 km/h (3 Bft)
17.11.2014 02:58 8,3 C 7,2 C 99 % 1001,1 hPa 0,0 l/m 0 min 0 min 0 W/m 16,7 km/h (3 Bft)
17.11.2014 03:00 8,3 C 7,2 C 99 % 1001,2 hPa 0,0 l/m 0 min 0 min 0 W/m 20,9 km/h (4 Bft)
17.11.2014 03:02 8,3 C 7,2 C 99 % 1001,2 hPa 0,0 l/m 0 min 0 min 0 W/m 18,8 km/h (3 Bft)
17.11.2014 03:04 8,3 C 7,2 C 99 % 1001,2 hPa 0,0 l/m 0 min 0 min 0 W/m 16,7 km/h (3 Bft)
17.11.2014 03:06 8,3 C 7,2 C 99 % 1001,2 hPa 0,0 l/m 0 min 0 min 0 W/m 18,8 km/h (3 Bft)
17.11.2014 03:08 8,4 C 7,2 C 99 % 1001,2 hPa 0,0 l/m 0 min 0 min 0 W/m 18,8 km/h (3 Bft)
17.11.2014 03:10 8,4 C 7,2 C 99 % 1001,2 hPa 0,0 l/m 0 min 0 min 0 W/m 14,6 km/h (3 Bft)
17.11.2014 03:12 8,4 C 7,2 C 99 % 1001,2 hPa 0,0 l/m 0 min 0 min 0 W/m 16,7 km/h (3 Bft)
17.11.2014 03:14 8,4 C 7,2 C 99 % 1001,2 hPa 0,0 l/m 0 min 0 min 0 W/m 12,6 km/h (3 Bft)
17.11.2014 03:16 8,4 C 7,2 C 99 % 1001,2 hPa 0,0 l/m 0 min 0 min 0 W/m 16,7 km/h (3 Bft)
17.11.2014 03:18 8,4 C 7,2 C 99 % 1001,2 hPa 0,0 l/m 0 min 0 min 0 W/m 14,6 km/h (3 Bft)
17.11.2014 03:20 8,4 C 7,2 C 99 % 1001,2 hPa 0,0 l/m 0 min 0 min 0 W/m 16,7 km/h (3 Bft)
17.11.2014 03:22 8,4 C 7,2 C 99 % 1001,2 hPa 0,0 l/m 0 min 0 min 0 W/m 12,6 km/h (3 Bft)
17.11.2014 03:24 8,3 C 7,2 C 99 % 1001,2 hPa 0,0 l/m 0 min 0 min 0 W/m 20,9 km/h (4 Bft)
17.11.2014 03:26 8,3 C 7,2 C 99 % 1001,2 hPa 0,0 l/m 0 min 0 min 0 W/m 14,6 km/h (3 Bft)
17.11.2014 03:28 8,3 C 7,2 C 99 % 1001,2 hPa 0,0 l/m 0 min 0 min 0 W/m 16,7 km/h (3 Bft)
17.11.2014 03:30 8,3 C 7,2 C 99 % 1001,2 hPa 0,0 l/m 0 min 0 min 0 W/m 14,6 km/h (3 Bft)
17.11.2014 03:32 8,3 C 7,2 C 99 % 1001,2 hPa 0,0 l/m 0 min 0 min 0 W/m 12,6 km/h (3 Bft)
17.11.2014 03:34 8,3 C 7,2 C 99 % 1001,2 hPa 0,0 l/m 0 min 0 min 0 W/m 14,6 km/h (3 Bft)
17.11.2014 03:36 8,3 C 7,2 C 99 % 1001,2 hPa 0,0 l/m 0 min 0 min 0 W/m 12,6 km/h (3 Bft)
17.11.2014 03:38 8,3 C 7,2 C 99 % 1001,2 hPa 0,0 l/m 0 min 0 min 0 W/m 10,5 km/h (2 Bft)
17.11.2014 03:40 8,3 C 7,2 C 99 % 1001,2 hPa 0,0 l/m 0 min 0 min 0 W/m 12,6 km/h (3 Bft)
17.11.2014 03:42 8,3 C 7,2 C 99 % 1001,2 hPa 0,0 l/m 0 min 0 min 0 W/m 14,6 km/h (3 Bft)
17.11.2014 03:44 8,3 C 7,2 C 99 % 1001,3 hPa 0,0 l/m 0 min 0 min 0 W/m 16,7 km/h (3 Bft)
17.11.2014 03:46 8,3 C 7,2 C 99 % 1001,3 hPa 0,0 l/m 0 min 0 min 0 W/m 18,8 km/h (3 Bft)
17.11.2014 03:48 8,3 C 7,2 C 99 % 1001,2 hPa 0,0 l/m 0 min 0 min 0 W/m 16,7 km/h (3 Bft)
17.11.2014 03:50 8,3 C 7,2 C 98 % 1001,3 hPa 0,0 l/m 0 min 0 min 0 W/m 12,6 km/h (3 Bft)
17.11.2014 03:52 8,3 C 7,2 C 98 % 1001,3 hPa 0,0 l/m 0 min 0 min 0 W/m 16,7 km/h (3 Bft)
17.11.2014 03:54 8,3 C 7,2 C 98 % 1001,3 hPa 0,0 l/m 0 min 0 min 0 W/m 18,8 km/h (3 Bft)
17.11.2014 03:56 8,3 C 7,2 C 98 % 1001,3 hPa 0,0 l/m 0 min 0 min 0 W/m 12,6 km/h (3 Bft)
17.11.2014 03:58 8,3 C 7,2 C 98 % 1001,3 hPa 0,0 l/m 0 min 0 min 0 W/m 14,6 km/h (3 Bft)
17.11.2014 04:00 8,3 C 6,7 C 98 % 1001,3 hPa 0,0 l/m 0 min 0 min 0 W/m 14,6 km/h (3 Bft)
17.11.2014 04:02 8,3 C 6,7 C 98 % 1001,3 hPa 0,0 l/m 0 min 0 min 0 W/m 14,6 km/h (3 Bft)
17.11.2014 04:04 8,3 C 6,7 C 98 % 1001,3 hPa 0,0 l/m 0 min 0 min 0 W/m 20,9 km/h (4 Bft)
17.11.2014 04:06 8,3 C 6,7 C 98 % 1001,3 hPa 0,0 l/m 0 min 0 min 0 W/m 23,0 km/h (4 Bft)
17.11.2014 04:08 8,2 C 6,7 C 98 % 1001,3 hPa 0,0 l/m 0 min 0 min 0 W/m 20,9 km/h (4 Bft)
17.11.2014 04:10 8,2 C 7,2 C 98 % 1001,4 hPa 0,0 l/m 0 min 0 min 0 W/m 23,0 km/h (4 Bft)
17.11.2014 04:12 8,2 C 7,2 C 98 % 1001,4 hPa 0,0 l/m 0 min 0 min 0 W/m 27,2 km/h (4 Bft)
17.11.2014 04:14 8,2 C 7,2 C 98 % 1001,4 hPa 0,0 l/m 0 min 0 min 0 W/m 16,7 km/h (3 Bft)
17.11.2014 04:16 8,2 C 7,2 C 98 % 1001,4 hPa 0,0 l/m 0 min 0 min 0 W/m 16,7 km/h (3 Bft)
17.11.2014 04:18 8,2 C 7,2 C 98 % 1001,4 hPa 0,0 l/m 0 min 0 min 0 W/m 14,6 km/h (3 Bft)
17.11.2014 04:20 8,2 C 7,2 C 98 % 1001,4 hPa 0,0 l/m 0 min 0 min 0 W/m 14,6 km/h (3 Bft)
17.11.2014 04:22 8,2 C 7,2 C 98 % 1001,5 hPa 0,0 l/m 0 min 0 min 0 W/m 14,6 km/h (3 Bft)
17.11.2014 04:24 8,2 C 7,2 C 98 % 1001,5 hPa 0,0 l/m 0 min 0 min 0 W/m 27,2 km/h (4 Bft)
17.11.2014 04:26 8,2 C 7,2 C 98 % 1001,5 hPa 0,0 l/m 0 min 0 min 0 W/m 14,6 km/h (3 Bft)
17.11.2014 04:28 8,2 C 7,2 C 98 % 1001,5 hPa 0,0 l/m 0 min 0 min 0 W/m 14,6 km/h (3 Bft)
17.11.2014 04:30 8,2 C 7,2 C 98 % 1001,5 hPa 0,0 l/m 0 min 0 min 0 W/m 25,1 km/h (4 Bft)
17.11.2014 04:32 8,2 C 7,2 C 98 % 1001,5 hPa 0,0 l/m 0 min 0 min 0 W/m 16,7 km/h (3 Bft)
17.11.2014 04:34 8,3 C 7,2 C 98 % 1001,5 hPa 0,0 l/m 0 min 0 min 0 W/m 10,5 km/h (2 Bft)
17.11.2014 04:36 8,3 C 7,2 C 98 % 1001,5 hPa 0,0 l/m 0 min 0 min 0 W/m 16,7 km/h (3 Bft)
17.11.2014 04:38 8,3 C 7,2 C 98 % 1001,6 hPa 0,0 l/m 0 min 0 min 0 W/m 16,7 km/h (3 Bft)
17.11.2014 04:40 8,3 C 7,2 C 98 % 1001,6 hPa 0,0 l/m 0 min 0 min 0 W/m 20,9 km/h (4 Bft)
17.11.2014 04:42 8,3 C 7,2 C 98 % 1001,6 hPa 0,0 l/m 0 min 0 min 0 W/m 16,7 km/h (3 Bft)
17.11.2014 04:44 8,3 C 7,2 C 98 % 1001,6 hPa 0,0 l/m 0 min 0 min 0 W/m 16,7 km/h (3 Bft)
17.11.2014 04:46 8,3 C 7,2 C 98 % 1001,7 hPa 0,0 l/m 0 min 0 min 0 W/m 20,9 km/h (4 Bft)
17.11.2014 04:48 8,3 C 7,2 C 98 % 1001,7 hPa 0,0 l/m 0 min 0 min 0 W/m 14,6 km/h (3 Bft)
17.11.2014 04:50 8,3 C 7,2 C 98 % 1001,7 hPa 0,0 l/m 0 min 0 min 0 W/m 18,8 km/h (3 Bft)
17.11.2014 04:52 8,3 C 7,2 C 98 % 1001,7 hPa 0,0 l/m 0 min 0 min 0 W/m 16,7 km/h (3 Bft)
17.11.2014 04:54 8,3 C 7,2 C 98 % 1001,8 hPa 0,0 l/m 0 min 0 min 0 W/m 16,7 km/h (3 Bft)
17.11.2014 04:56 8,3 C 7,2 C 98 % 1001,9 hPa 0,0 l/m 0 min 0 min 0 W/m 23,0 km/h (4 Bft)
17.11.2014 04:58 8,3 C 7,2 C 98 % 1001,9 hPa 0,0 l/m 0 min 0 min 0 W/m 16,7 km/h (3 Bft)
17.11.2014 05:00 8,3 C 7,2 C 98 % 1001,9 hPa 0,0 l/m 0 min 0 min 0 W/m 16,7 km/h (3 Bft)
17.11.2014 05:02 8,3 C 7,2 C 98 % 1001,9 hPa 0,0 l/m 0 min 0 min 0 W/m 18,8 km/h (3 Bft)
17.11.2014 05:04 8,3 C 7,2 C 98 % 1001,9 hPa 0,0 l/m 0 min 0 min 0 W/m 14,6 km/h (3 Bft)
17.11.2014 05:06 8,3 C 7,2 C 98 % 1001,9 hPa 0,0 l/m 0 min 0 min 0 W/m 20,9 km/h (4 Bft)
17.11.2014 05:08 8,3 C 6,7 C 98 % 1001,9 hPa 0,0 l/m 0 min 0 min 0 W/m 23,0 km/h (4 Bft)
17.11.2014 05:10 8,3 C 6,7 C 98 % 1001,9 hPa 0,0 l/m 0 min 0 min 0 W/m 20,9 km/h (4 Bft)
17.11.2014 05:12 8,3 C 6,7 C 98 % 1001,9 hPa 0,0 l/m 0 min 0 min 0 W/m 20,9 km/h (4 Bft)
17.11.2014 05:14 8,3 C 6,7 C 98 % 1002,0 hPa 0,0 l/m 0 min 0 min 0 W/m 23,0 km/h (4 Bft)
17.11.2014 05:16 8,3 C 6,7 C 98 % 1002,0 hPa 0,0 l/m 0 min 0 min 0 W/m 16,7 km/h (3 Bft)
17.11.2014 05:18 8,3 C 6,7 C 98 % 1002,0 hPa 0,0 l/m 0 min 0 min 0 W/m 14,6 km/h (3 Bft)
17.11.2014 05:20 8,3 C 6,7 C 98 % 1002,0 hPa 0,0 l/m 0 min 0 min 0 W/m 23,0 km/h (4 Bft)
17.11.2014 05:22 8,3 C 7,2 C 98 % 1002,1 hPa 0,0 l/m 0 min 0 min 0 W/m 18,8 km/h (3 Bft)
17.11.2014 05:24 8,3 C 7,2 C 98 % 1002,1 hPa 0,0 l/m 0 min 0 min 0 W/m 18,8 km/h (3 Bft)
17.11.2014 05:26 8,3 C 7,2 C 98 % 1002,1 hPa 0,0 l/m 0 min 0 min 0 W/m 16,7 km/h (3 Bft)
17.11.2014 05:28 8,3 C 7,2 C 98 % 1002,1 hPa 0,0 l/m 0 min 0 min 0 W/m 18,8 km/h (3 Bft)
17.11.2014 05:30 8,3 C 7,2 C 98 % 1002,1 hPa 0,0 l/m 0 min 0 min 0 W/m 14,6 km/h (3 Bft)
17.11.2014 05:32 8,3 C 7,2 C 98 % 1002,2 hPa 0,0 l/m 0 min 0 min 0 W/m 27,2 km/h (4 Bft)
17.11.2014 05:34 8,3 C 7,2 C 98 % 1002,1 hPa 0,0 l/m 0 min 2 min 0 W/m 20,9 km/h (4 Bft)
17.11.2014 05:36 8,3 C 7,2 C 98 % 1002,1 hPa 0,2 l/m 0 min 0 min 0 W/m 23,0 km/h (4 Bft)
17.11.2014 05:38 8,3 C 7,2 C 98 % 1002,2 hPa 0,0 l/m 0 min 0 min 0 W/m 20,9 km/h (4 Bft)
17.11.2014 05:40 8,4 C 7,2 C 98 % 1002,2 hPa 0,0 l/m 0 min 0 min 0 W/m 14,6 km/h (3 Bft)
17.11.2014 05:42 8,4 C 7,2 C 98 % 1002,2 hPa 0,0 l/m 0 min 0 min 0 W/m 20,9 km/h (4 Bft)
17.11.2014 05:44 8,4 C 7,2 C 98 % 1002,2 hPa 0,0 l/m 0 min 0 min 0 W/m 20,9 km/h (4 Bft)
17.11.2014 05:46 8,4 C 7,2 C 98 % 1002,2 hPa 0,0 l/m 0 min 0 min 0 W/m 14,6 km/h (3 Bft)
17.11.2014 05:48 8,4 C 7,2 C 98 % 1002,2 hPa 0,0 l/m 0 min 0 min 0 W/m 14,6 km/h (3 Bft)
17.11.2014 05:50 8,4 C 7,2 C 98 % 1002,2 hPa 0,0 l/m 0 min 2 min 0 W/m 12,6 km/h (3 Bft)
17.11.2014 05:52 8,4 C 7,2 C 98 % 1002,2 hPa 0,0 l/m 0 min 2 min 0 W/m 18,8 km/h (3 Bft)
17.11.2014 05:54 8,4 C 7,2 C 98 % 1002,2 hPa 0,0 l/m 0 min 2 min 0 W/m 18,8 km/h (3 Bft)
17.11.2014 05:56 8,4 C 7,2 C 98 % 1002,3 hPa 0,0 l/m 0 min 2 min 0 W/m 16,7 km/h (3 Bft)
17.11.2014 05:58 8,4 C 7,2 C 98 % 1002,3 hPa 0,0 l/m 0 min 2 min 0 W/m 16,7 km/h (3 Bft)
17.11.2014 06:00 8,4 C 7,2 C 98 % 1002,4 hPa 0,0 l/m 0 min 2 min 0 W/m 14,6 km/h (3 Bft)
17.11.2014 06:02 8,4 C 7,2 C 98 % 1002,4 hPa 0,0 l/m 0 min 0 min 0 W/m 12,6 km/h (3 Bft)
17.11.2014 06:06 8,4 C 7,2 C 98 % 1002,4 hPa 0,0 l/m 0 min 0 min 0 W/m 18,8 km/h (3 Bft)
17.11.2014 06:08 8,4 C 7,2 C 98 % 1002,4 hPa 0,0 l/m 0 min 0 min 0 W/m 12,6 km/h (3 Bft)
17.11.2014 06:10 8,4 C 7,2 C 98 % 1002,4 hPa 0,0 l/m 0 min 0 min 0 W/m 16,7 km/h (3 Bft)
17.11.2014 06:12 8,4 C 7,2 C 98 % 1002,4 hPa 0,0 l/m 0 min 0 min 0 W/m 10,5 km/h (2 Bft)
17.11.2014 06:14 8,4 C 7,2 C 98 % 1002,4 hPa 0,0 l/m 0 min 0 min 0 W/m 16,7 km/h (3 Bft)
17.11.2014 06:16 8,4 C 7,2 C 98 % 1002,4 hPa 0,0 l/m 0 min 0 min 0 W/m 23,0 km/h (4 Bft)
17.11.2014 06:18 8,4 C 7,2 C 98 % 1002,4 hPa 0,0 l/m 0 min 0 min 0 W/m 20,9 km/h (4 Bft)
17.11.2014 06:20 8,4 C 7,2 C 98 % 1002,3 hPa 0,0 l/m 0 min 0 min 0 W/m 18,8 km/h (3 Bft)
17.11.2014 06:22 8,4 C 7,2 C 98 % 1002,4 hPa 0,0 l/m 0 min 0 min 0 W/m 14,6 km/h (3 Bft)
17.11.2014 06:24 8,4 C 7,2 C 98 % 1002,4 hPa 0,0 l/m 0 min 0 min 0 W/m 16,7 km/h (3 Bft)
17.11.2014 06:26 8,4 C 7,2 C 98 % 1002,3 hPa 0,0 l/m 0 min 0 min 0 W/m 29,3 km/h (5 Bft)
17.11.2014 06:28 8,4 C 7,2 C 98 % 1002,3 hPa 0,0 l/m 0 min 0 min 0 W/m 18,8 km/h (3 Bft)
17.11.2014 06:30 8,4 C 7,2 C 98 % 1002,3 hPa 0,0 l/m 0 min 0 min 0 W/m 14,6 km/h (3 Bft)
17.11.2014 06:32 8,4 C 7,2 C 98 % 1002,4 hPa 0,0 l/m 0 min 0 min 0 W/m 23,0 km/h (4 Bft)
17.11.2014 06:34 8,4 C 7,2 C 98 % 1002,3 hPa 0,0 l/m 0 min 0 min 0 W/m 18,8 km/h (3 Bft)
17.11.2014 06:36 8,4 C 7,2 C 98 % 1002,4 hPa 0,0 l/m 0 min 0 min 0 W/m 14,6 km/h (3 Bft)
17.11.2014 06:38 8,4 C 6,7 C 98 % 1002,4 hPa 0,0 l/m 0 min 0 min 0 W/m 16,7 km/h (3 Bft)
17.11.2014 06:40 8,4 C 6,7 C 98 % 1002,4 hPa 0,0 l/m 0 min 0 min 0 W/m 14,6 km/h (3 Bft)
17.11.2014 06:42 8,4 C 6,7 C 98 % 1002,4 hPa 0,0 l/m 0 min 0 min 0 W/m 25,1 km/h (4 Bft)
17.11.2014 06:44 8,4 C 6,7 C 98 % 1002,3 hPa 0,0 l/m 0 min 0 min 0 W/m 18,8 km/h (3 Bft)
17.11.2014 06:46 8,4 C 6,7 C 98 % 1002,4 hPa 0,0 l/m 0 min 0 min 0 W/m 20,9 km/h (4 Bft)
17.11.2014 06:48 8,4 C 6,7 C 98 % 1002,4 hPa 0,0 l/m 0 min 0 min 0 W/m 14,6 km/h (3 Bft)
17.11.2014 06:50 8,4 C 6,7 C 98 % 1002,5 hPa 0,0 l/m 0 min 0 min 0 W/m 18,8 km/h (3 Bft)
17.11.2014 06:52 8,4 C 6,7 C 98 % 1002,4 hPa 0,0 l/m 0 min 0 min 0 W/m 14,6 km/h (3 Bft)
17.11.2014 06:54 8,4 C 6,7 C 97 % 1002,5 hPa 0,0 l/m 0 min 0 min 0 W/m 16,7 km/h (3 Bft)
17.11.2014 06:56 8,4 C 6,7 C 97 % 1002,5 hPa 0,0 l/m 0 min 0 min 0 W/m 14,6 km/h (3 Bft)
17.11.2014 06:58 8,4 C 6,7 C 97 % 1002,5 hPa 0,0 l/m 0 min 0 min 0 W/m 14,6 km/h (3 Bft)
17.11.2014 07:00 8,3 C 6,7 C 97 % 1002,5 hPa 0,0 l/m 0 min 0 min 0 W/m 14,6 km/h (3 Bft)
17.11.2014 07:02 8,3 C 6,7 C 97 % 1002,6 hPa 0,0 l/m 0 min 0 min 0 W/m 16,7 km/h (3 Bft)
17.11.2014 07:04 8,3 C 6,7 C 97 % 1002,6 hPa 0,0 l/m 0 min 0 min 0 W/m 12,6 km/h (3 Bft)
17.11.2014 07:06 8,3 C 6,7 C 97 % 1002,6 hPa 0,0 l/m 0 min 0 min 0 W/m 14,6 km/h (3 Bft)
17.11.2014 07:08 8,3 C 6,7 C 97 % 1002,6 hPa 0,0 l/m 0 min 0 min 0 W/m 14,6 km/h (3 Bft)
17.11.2014 07:10 8,3 C 6,7 C 97 % 1002,6 hPa 0,0 l/m 0 min 0 min 0 W/m 16,7 km/h (3 Bft)
17.11.2014 07:12 8,3 C 6,7 C 97 % 1002,7 hPa 0,0 l/m 0 min 0 min 0 W/m 16,7 km/h (3 Bft)
17.11.2014 07:14 8,3 C 6,7 C 97 % 1002,6 hPa 0,0 l/m 0 min 0 min 0 W/m 16,7 km/h (3 Bft)
17.11.2014 07:16 8,3 C 6,7 C 97 % 1002,6 hPa 0,0 l/m 0 min 0 min 0 W/m 18,8 km/h (3 Bft)
17.11.2014 07:18 8,3 C 6,7 C 97 % 1002,7 hPa 0,0 l/m 0 min 0 min 0 W/m 14,6 km/h (3 Bft)
17.11.2014 07:20 8,3 C 6,7 C 97 % 1002,7 hPa 0,0 l/m 0 min 0 min 0 W/m 18,8 km/h (3 Bft)
17.11.2014 07:22 8,3 C 6,7 C 97 % 1002,7 hPa 0,0 l/m 0 min 0 min 0 W/m 14,6 km/h (3 Bft)
17.11.2014 07:24 8,3 C 6,7 C 97 % 1002,7 hPa 0,0 l/m 0 min 0 min 0 W/m 16,7 km/h (3 Bft)
17.11.2014 07:26 8,3 C 6,7 C 97 % 1002,7 hPa 0,0 l/m 0 min 0 min 0 W/m 18,8 km/h (3 Bft)
17.11.2014 07:28 8,3 C 7,2 C 97 % 1002,7 hPa 0,0 l/m 0 min 0 min 0 W/m 18,8 km/h (3 Bft)
17.11.2014 07:30 8,3 C 7,2 C 97 % 1002,8 hPa 0,0 l/m 0 min 0 min 0 W/m 20,9 km/h (4 Bft)
17.11.2014 07:32 8,3 C 7,2 C 97 % 1002,8 hPa 0,0 l/m 0 min 0 min 0 W/m 25,1 km/h (4 Bft)
17.11.2014 07:34 8,4 C 7,2 C 97 % 1002,8 hPa 0,0 l/m 0 min 0 min 0 W/m 18,8 km/h (3 Bft)
17.11.2014 07:36 8,4 C 7,2 C 97 % 1002,8 hPa 0,0 l/m 0 min 0 min 0 W/m 18,8 km/h (3 Bft)
17.11.2014 07:38 8,4 C 6,7 C 97 % 1002,8 hPa 0,0 l/m 0 min 0 min 0 W/m 23,0 km/h (4 Bft)
17.11.2014 07:40 8,4 C 6,7 C 97 % 1002,8 hPa 0,0 l/m 0 min 0 min 0 W/m 18,8 km/h (3 Bft)
17.11.2014 07:42 8,4 C 6,7 C 97 % 1002,8 hPa 0,0 l/m 0 min 0 min 0 W/m 18,8 km/h (3 Bft)
17.11.2014 07:44 8,4 C 6,7 C 97 % 1002,9 hPa 0,0 l/m 0 min 0 min 0 W/m 18,8 km/h (3 Bft)
17.11.2014 07:46 8,4 C 6,7 C 97 % 1002,9 hPa 0,0 l/m 0 min 0 min 0 W/m 14,6 km/h (3 Bft)
17.11.2014 07:48 8,4 C 6,7 C 97 % 1003,0 hPa 0,0 l/m 0 min 0 min 0 W/m 16,7 km/h (3 Bft)
17.11.2014 07:50 8,4 C 6,7 C 97 % 1002,9 hPa 0,0 l/m 0 min 0 min 0 W/m 14,6 km/h (3 Bft)
17.11.2014 07:52 8,4 C 6,7 C 97 % 1003,0 hPa 0,0 l/m 0 min 0 min 0 W/m 16,7 km/h (3 Bft)
17.11.2014 07:54 8,4 C 6,7 C 97 % 1003,0 hPa 0,0 l/m 0 min 0 min 0 W/m 16,7 km/h (3 Bft)
17.11.2014 07:56 8,4 C 6,7 C 97 % 1003,1 hPa 0,0 l/m 0 min 0 min 0 W/m 16,7 km/h (3 Bft)
17.11.2014 07:58 8,4 C 6,7 C 97 % 1003,1 hPa 0,0 l/m 0 min 0 min 2 W/m 23,0 km/h (4 Bft)
17.11.2014 08:00 8,4 C 6,7 C 97 % 1003,1 hPa 0,0 l/m 0 min 0 min 5 W/m 16,7 km/h (3 Bft)
17.11.2014 08:02 8,4 C 6,7 C 97 % 1003,1 hPa 0,0 l/m 0 min 0 min 5 W/m 20,9 km/h (4 Bft)
17.11.2014 08:04 8,4 C 7,2 C 97 % 1003,2 hPa 0,0 l/m 0 min 0 min 6 W/m 16,7 km/h (3 Bft)
17.11.2014 08:06 8,4 C 7,2 C 97 % 1003,2 hPa 0,0 l/m 0 min 0 min 7 W/m 16,7 km/h (3 Bft)
17.11.2014 08:08 8,4 C 7,2 C 97 % 1003,2 hPa 0,0 l/m 0 min 0 min 9 W/m 16,7 km/h (3 Bft)
17.11.2014 08:10 8,4 C 7,2 C 97 % 1003,2 hPa 0,0 l/m 0 min 0 min 11 W/m 25,1 km/h (4 Bft)
17.11.2014 08:12 8,4 C 7,2 C 97 % 1003,2 hPa 0,0 l/m 0 min 0 min 12 W/m 18,8 km/h (3 Bft)
17.11.2014 08:14 8,5 C 7,2 C 97 % 1003,3 hPa 0,0 l/m 0 min 0 min 12 W/m 18,8 km/h (3 Bft)
17.11.2014 08:16 8,5 C 7,2 C 97 % 1003,3 hPa 0,0 l/m 0 min 0 min 12 W/m 18,8 km/h (3 Bft)
17.11.2014 08:18 8,5 C 7,2 C 97 % 1003,4 hPa 0,0 l/m 0 min 0 min 12 W/m 20,9 km/h (4 Bft)
17.11.2014 08:20 8,5 C 7,2 C 97 % 1003,4 hPa 0,0 l/m 0 min 0 min 14 W/m 16,7 km/h (3 Bft)
17.11.2014 08:22 8,5 C 7,2 C 97 % 1003,4 hPa 0,0 l/m 0 min 0 min 12 W/m 23,0 km/h (4 Bft)
17.11.2014 08:24 8,5 C 7,2 C 97 % 1003,4 hPa 0,0 l/m 0 min 0 min 11 W/m 18,8 km/h (3 Bft)
17.11.2014 08:26 8,5 C 7,2 C 97 % 1003,4 hPa 0,0 l/m 0 min 0 min 11 W/m 18,8 km/h (3 Bft)
17.11.2014 08:28 8,5 C 7,2 C 97 % 1003,5 hPa 0,0 l/m 0 min 0 min 13 W/m 14,6 km/h (3 Bft)
17.11.2014 08:30 8,5 C 7,2 C 97 % 1003,5 hPa 0,0 l/m 0 min 0 min 15 W/m 16,7 km/h (3 Bft)
17.11.2014 08:32 8,5 C 7,2 C 97 % 1003,5 hPa 0,0 l/m 0 min 0 min 17 W/m 20,9 km/h (4 Bft)
17.11.2014 08:34 8,5 C 7,2 C 97 % 1003,5 hPa 0,0 l/m 0 min 0 min 18 W/m 20,9 km/h (4 Bft)
17.11.2014 08:36 8,5 C 7,2 C 97 % 1003,5 hPa 0,0 l/m 0 min 0 min 19 W/m 14,6 km/h (3 Bft)
17.11.2014 08:38 8,5 C 7,2 C 97 % 1003,6 hPa 0,0 l/m 0 min 0 min 20 W/m 16,7 km/h (3 Bft)
17.11.2014 08:40 8,5 C 7,2 C 97 % 1003,6 hPa 0,0 l/m 0 min 0 min 21 W/m 18,8 km/h (3 Bft)
17.11.2014 08:42 8,5 C 7,2 C 97 % 1003,6 hPa 0,0 l/m 0 min 0 min 22 W/m 18,8 km/h (3 Bft)
17.11.2014 08:44 8,5 C 7,2 C 97 % 1003,7 hPa 0,0 l/m 0 min 0 min 24 W/m 18,8 km/h (3 Bft)
17.11.2014 08:46 8,5 C 7,2 C 97 % 1003,7 hPa 0,0 l/m 0 min 0 min 25 W/m 23,0 km/h (4 Bft)
17.11.2014 08:48 8,6 C 7,2 C 97 % 1003,7 hPa 0,0 l/m 0 min 0 min 24 W/m 23,0 km/h (4 Bft)
17.11.2014 08:50 8,6 C 7,2 C 97 % 1003,8 hPa 0,0 l/m 0 min 0 min 23 W/m 16,7 km/h (3 Bft)
17.11.2014 08:52 8,6 C 7,2 C 97 % 1003,8 hPa 0,0 l/m 0 min 0 min 21 W/m 18,8 km/h (3 Bft)
17.11.2014 08:54 8,6 C 7,2 C 97 % 1003,8 hPa 0,0 l/m 0 min 0 min 23 W/m 16,7 km/h (3 Bft)
17.11.2014 08:56 8,6 C 7,2 C 97 % 1003,8 hPa 0,0 l/m 0 min 0 min 25 W/m 20,9 km/h (4 Bft)
17.11.2014 08:58 8,6 C 7,2 C 97 % 1003,8 hPa 0,0 l/m 0 min 0 min 26 W/m 20,9 km/h (4 Bft)
17.11.2014 09:00 8,6 C 7,2 C 97 % 1003,9 hPa 0,0 l/m 0 min 0 min 28 W/m 18,8 km/h (3 Bft)
17.11.2014 09:02 8,6 C 7,2 C 97 % 1003,9 hPa 0,0 l/m 0 min 0 min 30 W/m 16,7 km/h (3 Bft)
17.11.2014 09:04 8,6 C 7,2 C 97 % 1003,9 hPa 0,0 l/m 0 min 0 min 31 W/m 23,0 km/h (4 Bft)
17.11.2014 09:06 8,6 C 7,2 C 97 % 1003,9 hPa 0,0 l/m 0 min 0 min 32 W/m 18,8 km/h (3 Bft)
17.11.2014 09:08 8,6 C 7,2 C 97 % 1003,9 hPa 0,0 l/m 0 min 0 min 32 W/m 16,7 km/h (3 Bft)
17.11.2014 09:10 8,6 C 7,2 C 97 % 1003,9 hPa 0,0 l/m 0 min 0 min 32 W/m 20,9 km/h (4 Bft)
17.11.2014 09:12 8,6 C 7,2 C 97 % 1003,9 hPa 0,0 l/m 0 min 0 min 34 W/m 14,6 km/h (3 Bft)
17.11.2014 09:14 8,6 C 7,2 C 97 % 1003,9 hPa 0,0 l/m 0 min 0 min 37 W/m 18,8 km/h (3 Bft)
17.11.2014 09:16 8,6 C 7,2 C 97 % 1003,9 hPa 0,0 l/m 0 min 0 min 37 W/m 18,8 km/h (3 Bft)
17.11.2014 09:18 8,6 C 7,2 C 97 % 1003,9 hPa 0,0 l/m 0 min 0 min 39 W/m 16,7 km/h (3 Bft)
17.11.2014 09:20 8,6 C 7,2 C 97 % 1004,0 hPa 0,0 l/m 0 min 0 min 39 W/m 14,6 km/h (3 Bft)
17.11.2014 09:22 8,6 C 7,2 C 97 % 1003,9 hPa 0,0 l/m 0 min 0 min 39 W/m 14,6 km/h (3 Bft)
17.11.2014 09:24 8,6 C 7,2 C 97 % 1003,9 hPa 0,0 l/m 0 min 0 min 41 W/m 18,8 km/h (3 Bft)
17.11.2014 09:26 8,6 C 7,2 C 97 % 1004,0 hPa 0,0 l/m 0 min 0 min 43 W/m 14,6 km/h (3 Bft)
17.11.2014 09:28 8,6 C 7,2 C 97 % 1004,0 hPa 0,0 l/m 0 min 0 min 45 W/m 12,6 km/h (3 Bft)
17.11.2014 09:30 8,6 C 7,2 C 97 % 1004,0 hPa 0,0 l/m 0 min 0 min 46 W/m 23,0 km/h (4 Bft)
17.11.2014 09:32 8,6 C 7,2 C 97 % 1004,0 hPa 0,0 l/m 0 min 0 min 48 W/m 18,8 km/h (3 Bft)
17.11.2014 09:34 8,7 C 7,2 C 97 % 1004,1 hPa 0,0 l/m 0 min 0 min 55 W/m 12,6 km/h (3 Bft)
17.11.2014 09:36 8,7 C 7,2 C 97 % 1004,1 hPa 0,0 l/m 0 min 0 min 63 W/m 20,9 km/h (4 Bft)
17.11.2014 09:38 8,7 C 7,8 C 97 % 1004,1 hPa 0,0 l/m 0 min 0 min 69 W/m 12,6 km/h (3 Bft)
17.11.2014 09:40 8,7 C 7,8 C 97 % 1004,1 hPa 0,0 l/m 0 min 0 min 70 W/m 18,8 km/h (3 Bft)
17.11.2014 09:42 8,7 C 7,8 C 96 % 1004,1 hPa 0,0 l/m 0 min 0 min 72 W/m 14,6 km/h (3 Bft)
17.11.2014 09:44 8,7 C 7,8 C 96 % 1004,2 hPa 0,0 l/m 0 min 0 min 73 W/m 12,6 km/h (3 Bft)
17.11.2014 09:46 8,7 C 7,8 C 96 % 1004,2 hPa 0,0 l/m 0 min 0 min 77 W/m 20,9 km/h (4 Bft)
17.11.2014 09:48 8,8 C 7,8 C 96 % 1004,2 hPa 0,0 l/m 0 min 0 min 80 W/m 16,7 km/h (3 Bft)
17.11.2014 09:50 8,8 C 7,8 C 96 % 1004,2 hPa 0,0 l/m 0 min 0 min 81 W/m 23,0 km/h (4 Bft)
17.11.2014 09:52 8,8 C 7,8 C 96 % 1004,1 hPa 0,0 l/m 0 min 0 min 81 W/m 16,7 km/h (3 Bft)
17.11.2014 09:54 8,8 C 7,8 C 96 % 1004,1 hPa 0,0 l/m 0 min 0 min 81 W/m 18,8 km/h (3 Bft)
17.11.2014 09:56 8,9 C 7,8 C 96 % 1004,1 hPa 0,0 l/m 0 min 0 min 83 W/m 16,7 km/h (3 Bft)
17.11.2014 09:58 8,9 C 7,8 C 96 % 1004,1 hPa 0,0 l/m 0 min 0 min 88 W/m 23,0 km/h (4 Bft)
17.11.2014 10:00 8,9 C 7,8 C 96 % 1004,1 hPa 0,0 l/m 0 min 0 min 89 W/m 20,9 km/h (4 Bft)
17.11.2014 10:02 8,9 C 7,8 C 96 % 1004,1 hPa 0,0 l/m 0 min 0 min 85 W/m 18,8 km/h (3 Bft)
17.11.2014 10:04 8,9 C 7,8 C 96 % 1004,1 hPa 0,0 l/m 0 min 0 min 83 W/m 16,7 km/h (3 Bft)
17.11.2014 10:06 8,9 C 7,8 C 96 % 1004,1 hPa 0,0 l/m 0 min 0 min 80 W/m 20,9 km/h (4 Bft)
17.11.2014 10:08 8,9 C 7,8 C 96 % 1004,0 hPa 0,0 l/m 0 min 0 min 79 W/m 23,0 km/h (4 Bft)
17.11.2014 10:10 8,9 C 7,8 C 96 % 1004,1 hPa 0,0 l/m 0 min 0 min 79 W/m 14,6 km/h (3 Bft)
17.11.2014 10:12 8,9 C 7,8 C 96 % 1004,1 hPa 0,0 l/m 0 min 0 min 82 W/m 23,0 km/h (4 Bft)
17.11.2014 10:14 9,0 C 7,8 C 96 % 1004,1 hPa 0,0 l/m 0 min 0 min 88 W/m 16,7 km/h (3 Bft)
17.11.2014 10:16 9,0 C 7,8 C 96 % 1004,1 hPa 0,0 l/m 0 min 0 min 95 W/m 16,7 km/h (3 Bft)
17.11.2014 10:18 9,0 C 7,8 C 96 % 1004,1 hPa 0,0 l/m 0 min 0 min 97 W/m 18,8 km/h (3 Bft)
17.11.2014 10:20 9,0 C 7,8 C 96 % 1004,0 hPa 0,0 l/m 0 min 0 min 94 W/m 20,9 km/h (4 Bft)
17.11.2014 10:22 9,1 C 8,3 C 96 % 1004,0 hPa 0,0 l/m 0 min 0 min 89 W/m 18,8 km/h (3 Bft)
17.11.2014 10:24 9,1 C 8,3 C 96 % 1004,0 hPa 0,0 l/m 0 min 0 min 83 W/m 18,8 km/h (3 Bft)
17.11.2014 10:26 9,1 C 8,3 C 96 % 1004,0 hPa 0,0 l/m 0 min 0 min 80 W/m 16,7 km/h (3 Bft)
17.11.2014 10:28 9,1 C 8,3 C 96 % 1004,0 hPa 0,0 l/m 0 min 0 min 76 W/m 20,9 km/h (4 Bft)
17.11.2014 10:30 9,1 C 8,3 C 96 % 1004,0 hPa 0,0 l/m 0 min 0 min 76 W/m 16,7 km/h (3 Bft)
17.11.2014 10:32 9,1 C 8,3 C 96 % 1004,1 hPa 0,0 l/m 0 min 0 min 83 W/m 23,0 km/h (4 Bft)
17.11.2014 10:34 9,2 C 8,3 C 96 % 1004,2 hPa 0,0 l/m 0 min 0 min 91 W/m 20,9 km/h (4 Bft)
17.11.2014 10:36 9,2 C 8,3 C 96 % 1004,1 hPa 0,0 l/m 0 min 0 min 100 W/m 16,7 km/h (3 Bft)
17.11.2014 10:38 9,2 C 8,3 C 96 % 1004,2 hPa 0,0 l/m 0 min 0 min 113 W/m 18,8 km/h (3 Bft)
17.11.2014 10:40 9,2 C 8,3 C 95 % 1004,2 hPa 0,0 l/m 0 min 0 min 131 W/m 16,7 km/h (3 Bft)
17.11.2014 10:42 9,3 C 8,9 C 95 % 1004,2 hPa 0,0 l/m 0 min 0 min 151 W/m 18,8 km/h (3 Bft)
17.11.2014 10:44 9,3 C 8,9 C 95 % 1004,2 hPa 0,0 l/m 2 min 0 min 184 W/m 20,9 km/h (4 Bft)
17.11.2014 10:46 9,3 C 8,9 C 95 % 1004,2 hPa 0,0 l/m 2 min 0 min 212 W/m 23,0 km/h (4 Bft)
17.11.2014 10:48 9,4 C 8,9 C 95 % 1004,3 hPa 0,0 l/m 2 min 0 min 307 W/m 18,8 km/h (3 Bft)
17.11.2014 10:50 9,5 C 8,9 C 95 % 1004,4 hPa 0,0 l/m 2 min 0 min 334 W/m 27,2 km/h (4 Bft)
17.11.2014 10:52 9,6 C 8,9 C 95 % 1004,4 hPa 0,0 l/m 2 min 0 min 342 W/m 25,1 km/h (4 Bft)
17.11.2014 10:54 9,7 C 8,9 C 95 % 1004,5 hPa 0,0 l/m 2 min 0 min 321 W/m 31,4 km/h (5 Bft)
17.11.2014 10:56 9,8 C 9,4 C 96 % 1004,3 hPa 0,0 l/m 2 min 0 min 278 W/m 18,8 km/h (3 Bft)
17.11.2014 10:58 9,9 C 9,4 C 95 % 1004,4 hPa 0,0 l/m 2 min 0 min 196 W/m 27,2 km/h (4 Bft)
17.11.2014 11:00 10,0 C 8,9 C 95 % 1004,4 hPa 0,0 l/m 0 min 0 min 163 W/m 31,4 km/h (5 Bft)
17.11.2014 11:02 10,1 C 8,9 C 95 % 1004,4 hPa 0,0 l/m 2 min 0 min 193 W/m 18,8 km/h (3 Bft)
17.11.2014 11:04 10,2 C 8,9 C 95 % 1004,4 hPa 0,0 l/m 0 min 0 min 160 W/m 18,8 km/h (3 Bft)
17.11.2014 11:06 10,2 C 8,9 C 94 % 1004,5 hPa 0,0 l/m 2 min 0 min 275 W/m 25,1 km/h (4 Bft)
17.11.2014 11:08 10,3 C 8,9 C 94 % 1004,5 hPa 0,0 l/m 0 min 0 min 154 W/m 25,1 km/h (4 Bft)
17.11.2014 11:10 10,3 C 8,9 C 94 % 1004,5 hPa 0,0 l/m 0 min 0 min 145 W/m 20,9 km/h (4 Bft)
17.11.2014 11:12 10,3 C 8,9 C 94 % 1004,5 hPa 0,0 l/m 0 min 0 min 151 W/m 29,3 km/h (5 Bft)
17.11.2014 11:14 10,4 C 8,9 C 93 % 1004,5 hPa 0,0 l/m 0 min 0 min 144 W/m 23,0 km/h (4 Bft)
17.11.2014 11:16 10,4 C 8,9 C 93 % 1004,5 hPa 0,0 l/m 2 min 0 min 188 W/m 20,9 km/h (4 Bft)
17.11.2014 11:18 10,4 C 8,9 C 93 % 1004,5 hPa 0,0 l/m 2 min 0 min 229 W/m 27,2 km/h (4 Bft)
17.11.2014 11:20 10,4 C 8,9 C 92 % 1004,5 hPa 0,0 l/m 2 min 0 min 181 W/m 18,8 km/h (3 Bft)
17.11.2014 11:22 10,5 C 8,9 C 92 % 1004,6 hPa 0,0 l/m 2 min 0 min 209 W/m 14,6 km/h (3 Bft)
17.11.2014 11:24 10,6 C 8,9 C 92 % 1004,5 hPa 0,0 l/m 0 min 0 min 136 W/m 14,6 km/h (3 Bft)
17.11.2014 11:26 10,6 C 8,9 C 92 % 1004,6 hPa 0,0 l/m 0 min 0 min 123 W/m 20,9 km/h (4 Bft)
17.11.2014 11:28 10,6 C 8,9 C 91 % 1004,6 hPa 0,0 l/m 0 min 0 min 116 W/m 20,9 km/h (4 Bft)
17.11.2014 11:30 10,6 C 8,9 C 91 % 1004,6 hPa 0,0 l/m 0 min 0 min 115 W/m 20,9 km/h (4 Bft)
17.11.2014 11:32 10,6 C 8,9 C 91 % 1004,6 hPa 0,0 l/m 0 min 0 min 118 W/m 23,0 km/h (4 Bft)
17.11.2014 11:34 10,6 C 8,9 C 91 % 1004,7 hPa 0,0 l/m 0 min 0 min 126 W/m 23,0 km/h (4 Bft)
17.11.2014 11:36 10,6 C 8,9 C 90 % 1004,6 hPa 0,0 l/m 0 min 0 min 138 W/m 23,0 km/h (4 Bft)
17.11.2014 11:38 10,6 C 8,9 C 90 % 1004,7 hPa 0,0 l/m 0 min 0 min 142 W/m 20,9 km/h (4 Bft)
17.11.2014 11:40 10,6 C 8,9 C 90 % 1004,7 hPa 0,0 l/m 0 min 0 min 141 W/m 18,8 km/h (3 Bft)
17.11.2014 11:42 10,6 C 9,4 C 90 % 1004,6 hPa 0,0 l/m 0 min 0 min 136 W/m 18,8 km/h (3 Bft)
17.11.2014 11:44 10,6 C 9,4 C 90 % 1004,6 hPa 0,0 l/m 0 min 0 min 132 W/m 20,9 km/h (4 Bft)
17.11.2014 11:46 10,6 C 9,4 C 90 % 1004,6 hPa 0,0 l/m 0 min 0 min 129 W/m 31,4 km/h (5 Bft)
17.11.2014 11:48 10,6 C 9,4 C 90 % 1004,6 hPa 0,0 l/m 0 min 0 min 128 W/m 20,9 km/h (4 Bft)
17.11.2014 11:50 10,6 C 9,4 C 90 % 1004,6 hPa 0,0 l/m 0 min 0 min 132 W/m 20,9 km/h (4 Bft)
17.11.2014 11:52 10,6 C 9,4 C 90 % 1004,7 hPa 0,0 l/m 0 min 0 min 146 W/m 27,2 km/h (4 Bft)
17.11.2014 11:54 10,6 C 9,4 C 90 % 1004,6 hPa 0,0 l/m 2 min 0 min 207 W/m 27,2 km/h (4 Bft)
17.11.2014 11:56 10,6 C 9,4 C 90 % 1004,7 hPa 0,0 l/m 2 min 0 min 300 W/m 25,1 km/h (4 Bft)
17.11.2014 11:58 10,7 C 10,0 C 90 % 1004,7 hPa 0,0 l/m 2 min 0 min 265 W/m 18,8 km/h (3 Bft)
17.11.2014 12:00 10,7 C 10,0 C 90 % 1004,6 hPa 0,0 l/m 2 min 0 min 213 W/m 23,0 km/h (4 Bft)
17.11.2014 12:02 10,8 C 10,0 C 90 % 1004,7 hPa 0,0 l/m 2 min 0 min 236 W/m 25,1 km/h (4 Bft)
17.11.2014 12:06 10,9 C 10,0 C 90 % 1004,7 hPa 0,0 l/m 2 min 0 min 232 W/m 20,9 km/h (4 Bft)
17.11.2014 12:08 10,9 C 10,0 C 90 % 1004,7 hPa 0,0 l/m 2 min 0 min 196 W/m 20,9 km/h (4 Bft)
17.11.2014 12:10 10,9 C 10,0 C 90 % 1004,7 hPa 0,0 l/m 2 min 0 min 192 W/m 20,9 km/h (4 Bft)
17.11.2014 12:12 11,0 C 10,0 C 89 % 1004,7 hPa 0,0 l/m 0 min 0 min 187 W/m 23,0 km/h (4 Bft)
17.11.2014 12:14 11,0 C 10,0 C 89 % 1004,8 hPa 0,0 l/m 0 min 0 min 184 W/m 16,7 km/h (3 Bft)
17.11.2014 12:16 11,1 C 10,0 C 89 % 1004,7 hPa 0,0 l/m 0 min 0 min 178 W/m 18,8 km/h (3 Bft)
17.11.2014 12:18 11,1 C 10,0 C 89 % 1004,7 hPa 0,0 l/m 0 min 0 min 174 W/m 27,2 km/h (4 Bft)
17.11.2014 12:20 11,1 C 10,0 C 89 % 1004,7 hPa 0,0 l/m 0 min 0 min 175 W/m 16,7 km/h (3 Bft)
17.11.2014 12:22 11,1 C 10,0 C 89 % 1004,8 hPa 0,0 l/m 0 min 0 min 180 W/m 25,1 km/h (4 Bft)
17.11.2014 12:24 11,1 C 10,0 C 89 % 1004,7 hPa 0,0 l/m 2 min 0 min 209 W/m 20,9 km/h (4 Bft)
17.11.2014 12:26 11,2 C 10,0 C 89 % 1004,7 hPa 0,0 l/m 2 min 0 min 228 W/m 18,8 km/h (3 Bft)
17.11.2014 12:28 11,2 C 10,0 C 88 % 1004,7 hPa 0,0 l/m 2 min 0 min 213 W/m 20,9 km/h (4 Bft)
17.11.2014 12:30 11,2 C 10,0 C 88 % 1004,7 hPa 0,0 l/m 2 min 0 min 213 W/m 20,9 km/h (4 Bft)
17.11.2014 12:32 11,2 C 10,0 C 88 % 1004,7 hPa 0,0 l/m 2 min 0 min 189 W/m 18,8 km/h (3 Bft)
17.11.2014 12:34 11,2 C 10,0 C 88 % 1004,7 hPa 0,0 l/m 0 min 0 min 179 W/m 20,9 km/h (4 Bft)
17.11.2014 12:36 11,3 C 10,0 C 88 % 1004,7 hPa 0,0 l/m 0 min 0 min 167 W/m 18,8 km/h (3 Bft)
17.11.2014 12:38 11,3 C 10,0 C 88 % 1004,7 hPa 0,0 l/m 0 min 0 min 156 W/m 18,8 km/h (3 Bft)
17.11.2014 12:40 11,3 C 10,0 C 88 % 1004,7 hPa 0,0 l/m 0 min 0 min 153 W/m 18,8 km/h (3 Bft)
17.11.2014 12:42 11,3 C 10,0 C 87 % 1004,7 hPa 0,0 l/m 0 min 0 min 153 W/m 16,7 km/h (3 Bft)
17.11.2014 12:44 11,3 C 10,0 C 87 % 1004,7 hPa 0,0 l/m 0 min 0 min 146 W/m 18,8 km/h (3 Bft)
17.11.2014 12:46 11,3 C 10,0 C 87 % 1004,7 hPa 0,0 l/m 0 min 0 min 145 W/m 25,1 km/h (4 Bft)
17.11.2014 12:48 11,3 C 10,0 C 87 % 1004,7 hPa 0,0 l/m 0 min 0 min 145 W/m 16,7 km/h (3 Bft)
17.11.2014 12:50 11,3 C 10,0 C 87 % 1004,7 hPa 0,0 l/m 0 min 0 min 144 W/m 20,9 km/h (4 Bft)
17.11.2014 12:52 11,3 C 10,0 C 87 % 1004,7 hPa 0,0 l/m 0 min 0 min 128 W/m 20,9 km/h (4 Bft)
17.11.2014 12:54 11,3 C 10,0 C 87 % 1004,7 hPa 0,0 l/m 0 min 0 min 117 W/m 25,1 km/h (4 Bft)
17.11.2014 12:56 11,3 C 10,0 C 87 % 1004,7 hPa 0,0 l/m 0 min 0 min 121 W/m 18,8 km/h (3 Bft)
17.11.2014 12:58 11,3 C 10,0 C 87 % 1004,8 hPa 0,0 l/m 0 min 0 min 125 W/m 16,7 km/h (3 Bft)
17.11.2014 13:00 11,3 C 10,0 C 87 % 1004,8 hPa 0,0 l/m 0 min 0 min 133 W/m 14,6 km/h (3 Bft)
17.11.2014 13:02 11,3 C 10,0 C 87 % 1004,8 hPa 0,0 l/m 0 min 0 min 142 W/m 12,6 km/h (3 Bft)
17.11.2014 13:04 11,3 C 10,6 C 87 % 1004,9 hPa 0,0 l/m 0 min 0 min 149 W/m 23,0 km/h (4 Bft)
17.11.2014 13:06 11,3 C 10,6 C 87 % 1004,9 hPa 0,0 l/m 0 min 0 min 151 W/m 23,0 km/h (4 Bft)
17.11.2014 13:08 11,3 C 10,6 C 87 % 1004,9 hPa 0,0 l/m 0 min 0 min 156 W/m 25,1 km/h (4 Bft)
17.11.2014 13:10 11,3 C 10,6 C 87 % 1004,9 hPa 0,0 l/m 0 min 0 min 162 W/m 16,7 km/h (3 Bft)
17.11.2014 13:12 11,3 C 10,6 C 87 % 1004,9 hPa 0,0 l/m 0 min 0 min 167 W/m 23,0 km/h (4 Bft)
17.11.2014 13:14 11,3 C 10,6 C 87 % 1004,9 hPa 0,0 l/m 2 min 0 min 185 W/m 20,9 km/h (4 Bft)
17.11.2014 13:16 11,3 C 10,6 C 86 % 1005,0 hPa 0,0 l/m 2 min 0 min 186 W/m 20,9 km/h (4 Bft)
17.11.2014 13:18 11,4 C 10,6 C 86 % 1005,0 hPa 0,0 l/m 0 min 0 min 160 W/m 25,1 km/h (4 Bft)
17.11.2014 13:20 11,4 C 10,6 C 86 % 1004,9 hPa 0,0 l/m 0 min 0 min 133 W/m 18,8 km/h (3 Bft)
17.11.2014 13:22 11,4 C 10,6 C 86 % 1004,9 hPa 0,0 l/m 0 min 0 min 122 W/m 16,7 km/h (3 Bft)
17.11.2014 13:24 11,4 C 10,6 C 86 % 1004,9 hPa 0,0 l/m 0 min 0 min 126 W/m 20,9 km/h (4 Bft)
17.11.2014 13:26 11,4 C 10,6 C 86 % 1004,9 hPa 0,0 l/m 0 min 0 min 128 W/m 23,0 km/h (4 Bft)
17.11.2014 13:28 11,4 C 10,6 C 86 % 1004,8 hPa 0,0 l/m 0 min 0 min 133 W/m 18,8 km/h (3 Bft)
17.11.2014 13:30 11,4 C 10,6 C 86 % 1004,8 hPa 0,0 l/m 0 min 0 min 140 W/m 12,6 km/h (3 Bft)
17.11.2014 13:32 11,4 C 10,6 C 86 % 1004,8 hPa 0,0 l/m 0 min 0 min 147 W/m 16,7 km/h (3 Bft)
17.11.2014 13:34 11,5 C 10,6 C 86 % 1004,8 hPa 0,0 l/m 0 min 0 min 152 W/m 14,6 km/h (3 Bft)
17.11.2014 13:36 11,5 C 10,6 C 86 % 1004,8 hPa 0,0 l/m 0 min 0 min 146 W/m 12,6 km/h (3 Bft)
17.11.2014 13:38 11,5 C 10,6 C 86 % 1004,9 hPa 0,0 l/m 0 min 0 min 136 W/m 12,6 km/h (3 Bft)
17.11.2014 13:40 11,5 C 10,6 C 86 % 1004,9 hPa 0,0 l/m 0 min 0 min 134 W/m 8,4 km/h (2 Bft)
17.11.2014 13:42 11,6 C 10,6 C 86 % 1004,9 hPa 0,0 l/m 0 min 0 min 134 W/m 10,5 km/h (2 Bft)
17.11.2014 13:44 11,6 C 10,6 C 86 % 1004,8 hPa 0,0 l/m 0 min 0 min 112 W/m 14,6 km/h (3 Bft)
17.11.2014 13:46 11,6 C 10,6 C 85 % 1004,8 hPa 0,0 l/m 0 min 0 min 106 W/m 16,7 km/h (3 Bft)
17.11.2014 13:48 11,6 C 10,6 C 85 % 1004,9 hPa 0,0 l/m 0 min 0 min 103 W/m 14,6 km/h (3 Bft)
17.11.2014 13:50 11,6 C 10,6 C 85 % 1004,8 hPa 0,0 l/m 0 min 0 min 103 W/m 18,8 km/h (3 Bft)
17.11.2014 13:52 11,6 C 10,6 C 85 % 1004,8 hPa 0,0 l/m 0 min 0 min 104 W/m 14,6 km/h (3 Bft)
17.11.2014 13:54 11,6 C 10,0 C 85 % 1004,9 hPa 0,0 l/m 0 min 0 min 109 W/m 18,8 km/h (3 Bft)
17.11.2014 13:56 11,6 C 10,6 C 85 % 1004,9 hPa 0,0 l/m 0 min 0 min 117 W/m 18,8 km/h (3 Bft)
17.11.2014 13:58 11,6 C 10,6 C 85 % 1005,0 hPa 0,0 l/m 0 min 0 min 121 W/m 16,7 km/h (3 Bft)
17.11.2014 14:00 11,6 C 10,6 C 85 % 1004,9 hPa 0,0 l/m 0 min 0 min 120 W/m 10,5 km/h (2 Bft)
17.11.2014 14:02 11,6 C 10,6 C 84 % 1004,9 hPa 0,0 l/m 0 min 0 min 115 W/m 12,6 km/h (3 Bft)
17.11.2014 14:04 11,6 C 10,6 C 84 % 1004,9 hPa 0,0 l/m 0 min 0 min 109 W/m 14,6 km/h (3 Bft)
17.11.2014 14:06 11,6 C 10,0 C 84 % 1004,9 hPa 0,0 l/m 0 min 0 min 100 W/m 18,8 km/h (3 Bft)
17.11.2014 14:08 11,6 C 10,0 C 84 % 1004,9 hPa 0,0 l/m 0 min 0 min 91 W/m 16,7 km/h (3 Bft)
17.11.2014 14:10 11,6 C 10,0 C 84 % 1004,9 hPa 0,0 l/m 0 min 0 min 90 W/m 14,6 km/h (3 Bft)
17.11.2014 14:12 11,6 C 10,0 C 84 % 1004,8 hPa 0,0 l/m 0 min 0 min 84 W/m 14,6 km/h (3 Bft)
17.11.2014 14:14 11,5 C 10,0 C 84 % 1004,8 hPa 0,0 l/m 0 min 0 min 91 W/m 8,4 km/h (2 Bft)
17.11.2014 14:16 11,6 C 10,0 C 84 % 1004,8 hPa 0,0 l/m 0 min 0 min 99 W/m 14,6 km/h (3 Bft)
17.11.2014 14:18 11,6 C 10,0 C 84 % 1004,9 hPa 0,0 l/m 0 min 0 min 104 W/m 10,5 km/h (2 Bft)
17.11.2014 14:20 11,6 C 10,0 C 85 % 1005,0 hPa 0,0 l/m 0 min 0 min 104 W/m 10,5 km/h (2 Bft)
17.11.2014 14:22 11,5 C 10,0 C 85 % 1004,9 hPa 0,0 l/m 0 min 0 min 108 W/m 18,8 km/h (3 Bft)
17.11.2014 14:24 11,6 C 10,6 C 85 % 1004,9 hPa 0,0 l/m 0 min 0 min 120 W/m 12,6 km/h (3 Bft)
17.11.2014 14:26 11,6 C 10,6 C 85 % 1005,0 hPa 0,0 l/m 0 min 0 min 116 W/m 14,6 km/h (3 Bft)
17.11.2014 14:28 11,6 C 10,6 C 85 % 1005,0 hPa 0,0 l/m 0 min 0 min 104 W/m 10,5 km/h (2 Bft)
17.11.2014 14:30 11,6 C 10,6 C 85 % 1005,0 hPa 0,0 l/m 0 min 0 min 88 W/m 8,4 km/h (2 Bft)
17.11.2014 14:32 11,6 C 10,0 C 85 % 1005,0 hPa 0,0 l/m 0 min 0 min 69 W/m 8,4 km/h (2 Bft)
17.11.2014 14:34 11,6 C 10,0 C 85 % 1005,0 hPa 0,0 l/m 0 min 0 min 55 W/m 16,7 km/h (3 Bft)
17.11.2014 14:36 11,6 C 10,0 C 84 % 1005,0 hPa 0,0 l/m 0 min 0 min 49 W/m 14,6 km/h (3 Bft)
17.11.2014 14:38 11,5 C 10,0 C 84 % 1005,0 hPa 0,0 l/m 0 min 0 min 47 W/m 10,5 km/h (2 Bft)
17.11.2014 14:40 11,5 C 10,0 C 84 % 1005,0 hPa 0,0 l/m 0 min 0 min 47 W/m 10,5 km/h (2 Bft)
17.11.2014 14:42 11,5 C 10,0 C 84 % 1005,0 hPa 0,0 l/m 0 min 0 min 50 W/m 8,4 km/h (2 Bft)
17.11.2014 14:44 11,5 C 10,0 C 84 % 1005,1 hPa 0,0 l/m 0 min 0 min 53 W/m 6,3 km/h (2 Bft)
17.11.2014 14:46 11,5 C 10,0 C 84 % 1005,1 hPa 0,0 l/m 0 min 0 min 53 W/m 6,3 km/h (2 Bft)
17.11.2014 14:48 11,4 C 10,0 C 84 % 1005,1 hPa 0,0 l/m 0 min 0 min 49 W/m 6,3 km/h (2 Bft)
17.11.2014 14:50 11,4 C 10,0 C 84 % 1005,1 hPa 0,0 l/m 0 min 0 min 42 W/m 10,5 km/h (2 Bft)
17.11.2014 14:52 11,4 C 10,0 C 84 % 1005,0 hPa 0,0 l/m 0 min 0 min 37 W/m 10,5 km/h (2 Bft)
17.11.2014 14:54 11,4 C 10,0 C 84 % 1005,0 hPa 0,0 l/m 0 min 0 min 33 W/m 8,4 km/h (2 Bft)
17.11.2014 14:56 11,4 C 10,0 C 84 % 1005,0 hPa 0,0 l/m 0 min 0 min 32 W/m 8,4 km/h (2 Bft)
17.11.2014 14:58 11,4 C 9,4 C 84 % 1005,1 hPa 0,0 l/m 0 min 0 min 29 W/m 4,2 km/h (1 Bft)
17.11.2014 15:00 11,4 C 9,4 C 85 % 1005,0 hPa 0,0 l/m 0 min 0 min 27 W/m 6,3 km/h (2 Bft)
17.11.2014 15:02 11,4 C 9,4 C 85 % 1005,0 hPa 0,0 l/m 0 min 0 min 27 W/m 6,3 km/h (2 Bft)
17.11.2014 15:04 11,4 C 9,4 C 85 % 1005,0 hPa 0,0 l/m 0 min 0 min 32 W/m 4,2 km/h (1 Bft)
17.11.2014 15:06 11,4 C 9,4 C 85 % 1005,0 hPa 0,0 l/m 0 min 0 min 40 W/m 4,2 km/h (1 Bft)
17.11.2014 15:08 11,4 C 9,4 C 85 % 1005,1 hPa 0,0 l/m 0 min 0 min 46 W/m 4,2 km/h (1 Bft)
17.11.2014 15:10 11,3 C 9,4 C 85 % 1005,1 hPa 0,0 l/m 0 min 0 min 46 W/m 4,2 km/h (1 Bft)
17.11.2014 15:12 11,3 C 9,4 C 85 % 1005,0 hPa 0,0 l/m 0 min 0 min 47 W/m 4,2 km/h (1 Bft)
17.11.2014 15:14 11,3 C 9,4 C 85 % 1005,1 hPa 0,0 l/m 0 min 0 min 59 W/m 6,3 km/h (2 Bft)
17.11.2014 15:16 11,3 C 10,0 C 85 % 1005,0 hPa 0,0 l/m 0 min 0 min 71 W/m 4,2 km/h (1 Bft)
17.11.2014 15:18 11,3 C 10,0 C 85 % 1005,0 hPa 0,0 l/m 0 min 0 min 66 W/m 6,3 km/h (2 Bft)
17.11.2014 15:20 11,3 C 10,0 C 85 % 1005,1 hPa 0,0 l/m 0 min 0 min 63 W/m 4,2 km/h (1 Bft)
17.11.2014 15:22 11,3 C 10,0 C 85 % 1005,0 hPa 0,0 l/m 0 min 0 min 56 W/m 6,3 km/h (2 Bft)
17.11.2014 15:24 11,3 C 9,4 C 85 % 1005,1 hPa 0,0 l/m 0 min 0 min 54 W/m 4,2 km/h (1 Bft)
17.11.2014 15:26 11,3 C 9,4 C 85 % 1005,0 hPa 0,0 l/m 0 min 0 min 51 W/m 4,2 km/h (1 Bft)
17.11.2014 15:28 11,3 C 9,4 C 85 % 1005,1 hPa 0,0 l/m 0 min 0 min 50 W/m 6,3 km/h (2 Bft)
17.11.2014 15:30 11,3 C 9,4 C 85 % 1005,1 hPa 0,0 l/m 0 min 0 min 49 W/m 6,3 km/h (2 Bft)
17.11.2014 15:32 11,3 C 9,4 C 85 % 1005,1 hPa 0,0 l/m 0 min 0 min 49 W/m 4,2 km/h (1 Bft)
17.11.2014 15:34 11,3 C 8,9 C 85 % 1005,1 hPa 0,0 l/m 0 min 0 min 51 W/m 2,1 km/h (1 Bft)
17.11.2014 15:36 11,3 C 8,9 C 85 % 1005,1 hPa 0,0 l/m 0 min 0 min 53 W/m 4,2 km/h (1 Bft)
17.11.2014 15:38 11,2 C 8,9 C 85 % 1005,1 hPa 0,0 l/m 0 min 0 min 53 W/m 4,2 km/h (1 Bft)
17.11.2014 15:40 11,2 C 8,9 C 85 % 1005,1 hPa 0,0 l/m 0 min 0 min 46 W/m 4,2 km/h (1 Bft)
17.11.2014 15:42 11,2 C 8,9 C 86 % 1005,2 hPa 0,0 l/m 0 min 0 min 37 W/m 4,2 km/h (1 Bft)
17.11.2014 15:44 11,2 C 8,9 C 86 % 1005,2 hPa 0,0 l/m 0 min 0 min 30 W/m 2,1 km/h (1 Bft)
17.11.2014 15:46 11,2 C 8,9 C 86 % 1005,2 hPa 0,0 l/m 0 min 0 min 26 W/m 4,2 km/h (1 Bft)
17.11.2014 15:48 11,2 C 8,9 C 86 % 1005,2 hPa 0,0 l/m 0 min 0 min 24 W/m 2,1 km/h (1 Bft)
17.11.2014 15:50 11,2 C 8,9 C 86 % 1005,2 hPa 0,0 l/m 0 min 0 min 23 W/m 4,2 km/h (1 Bft)
17.11.2014 15:52 11,2 C 8,9 C 86 % 1005,2 hPa 0,0 l/m 0 min 0 min 20 W/m 4,2 km/h (1 Bft)
17.11.2014 15:54 11,2 C 8,9 C 86 % 1005,3 hPa 0,0 l/m 0 min 0 min 18 W/m 4,2 km/h (1 Bft)
17.11.2014 15:56 11,2 C 8,9 C 86 % 1005,2 hPa 0,0 l/m 0 min 0 min 15 W/m 4,2 km/h (1 Bft)
17.11.2014 15:58 11,2 C 8,9 C 86 % 1005,3 hPa 0,0 l/m 0 min 0 min 12 W/m 6,3 km/h (2 Bft)
17.11.2014 16:00 11,2 C 8,9 C 86 % 1005,4 hPa 0,0 l/m 0 min 0 min 12 W/m 4,2 km/h (1 Bft)
17.11.2014 16:02 11,1 C 8,9 C 86 % 1005,4 hPa 0,0 l/m 0 min 0 min 12 W/m 6,3 km/h (2 Bft)
17.11.2014 16:04 11,1 C 8,9 C 86 % 1005,4 hPa 0,0 l/m 0 min 0 min 16 W/m 4,2 km/h (1 Bft)
17.11.2014 16:06 11,1 C 8,9 C 86 % 1005,5 hPa 0,0 l/m 0 min 0 min 16 W/m 6,3 km/h (2 Bft)
17.11.2014 16:08 11,1 C 8,9 C 86 % 1005,4 hPa 0,0 l/m 0 min 0 min 18 W/m 4,2 km/h (1 Bft)
17.11.2014 16:10 11,1 C 8,9 C 86 % 1005,4 hPa 0,0 l/m 0 min 0 min 16 W/m 4,2 km/h (1 Bft)
17.11.2014 16:12 11,1 C 8,9 C 86 % 1005,5 hPa 0,0 l/m 0 min 0 min 16 W/m 6,3 km/h (2 Bft)
17.11.2014 16:14 11,1 C 8,9 C 86 % 1005,5 hPa 0,0 l/m 0 min 0 min 15 W/m 6,3 km/h (2 Bft)
17.11.2014 16:16 11,1 C 8,9 C 86 % 1005,5 hPa 0,0 l/m 0 min 0 min 14 W/m 6,3 km/h (2 Bft)
17.11.2014 16:18 11,0 C 8,9 C 86 % 1005,5 hPa 0,0 l/m 0 min 0 min 13 W/m 4,2 km/h (1 Bft)
17.11.2014 16:20 11,0 C 8,9 C 86 % 1005,5 hPa 0,0 l/m 0 min 0 min 12 W/m 4,2 km/h (1 Bft)
17.11.2014 16:22 11,0 C 8,9 C 86 % 1005,5 hPa 0,0 l/m 0 min 0 min 11 W/m 6,3 km/h (2 Bft)
17.11.2014 16:24 11,0 C 8,9 C 87 % 1005,5 hPa 0,0 l/m 0 min 0 min 11 W/m 6,3 km/h (2 Bft)
17.11.2014 16:26 11,0 C 8,9 C 87 % 1005,5 hPa 0,0 l/m 0 min 0 min 11 W/m 6,3 km/h (2 Bft)
17.11.2014 16:28 11,0 C 8,9 C 87 % 1005,5 hPa 0,0 l/m 0 min 0 min 9 W/m 6,3 km/h (2 Bft)
17.11.2014 16:30 10,9 C 8,9 C 87 % 1005,5 hPa 0,0 l/m 0 min 0 min 6 W/m 6,3 km/h (2 Bft)
17.11.2014 16:32 10,9 C 8,9 C 87 % 1005,6 hPa 0,0 l/m 0 min 0 min 4 W/m 4,2 km/h (1 Bft)
17.11.2014 16:34 10,9 C 8,9 C 87 % 1005,6 hPa 0,0 l/m 0 min 0 min 0 W/m 4,2 km/h (1 Bft)
17.11.2014 16:36 10,9 C 8,9 C 87 % 1005,7 hPa 0,0 l/m 0 min 0 min 0 W/m 4,2 km/h (1 Bft)
17.11.2014 16:38 10,9 C 8,9 C 87 % 1005,6 hPa 0,0 l/m 0 min 0 min 0 W/m 4,2 km/h (1 Bft)
17.11.2014 16:40 10,9 C 8,9 C 87 % 1005,6 hPa 0,0 l/m 0 min 0 min 0 W/m 6,3 km/h (2 Bft)
17.11.2014 16:42 10,9 C 8,9 C 87 % 1005,6 hPa 0,0 l/m 0 min 2 min 0 W/m 6,3 km/h (2 Bft)
17.11.2014 16:44 10,9 C 8,9 C 87 % 1005,7 hPa 0,0 l/m 0 min 0 min 0 W/m 4,2 km/h (1 Bft)
17.11.2014 16:46 10,9 C 8,9 C 87 % 1005,7 hPa 0,0 l/m 0 min 0 min 0 W/m 4,2 km/h (1 Bft)
17.11.2014 16:48 10,9 C 8,9 C 87 % 1005,7 hPa 0,0 l/m 0 min 0 min 0 W/m 4,2 km/h (1 Bft)
17.11.2014 16:50 10,9 C 8,9 C 87 % 1005,7 hPa 0,0 l/m 0 min 0 min 0 W/m 8,4 km/h (2 Bft)
17.11.2014 16:52 10,9 C 8,9 C 87 % 1005,7 hPa 0,0 l/m 0 min 0 min 0 W/m 4,2 km/h (1 Bft)
17.11.2014 16:54 10,8 C 8,9 C 87 % 1005,7 hPa 0,0 l/m 0 min 0 min 0 W/m 6,3 km/h (2 Bft)
17.11.2014 16:56 10,8 C 8,9 C 87 % 1005,7 hPa 0,0 l/m 0 min 2 min 0 W/m 10,5 km/h (2 Bft)
17.11.2014 16:58 10,8 C 8,9 C 87 % 1005,7 hPa 0,0 l/m 0 min 2 min 0 W/m 10,5 km/h (2 Bft)
17.11.2014 17:00 10,8 C 8,3 C 87 % 1005,8 hPa 0,2 l/m 0 min 2 min 0 W/m 8,4 km/h (2 Bft)
17.11.2014 17:02 10,8 C 8,3 C 88 % 1005,7 hPa 0,0 l/m 0 min 2 min 0 W/m 10,5 km/h (2 Bft)
17.11.2014 17:04 10,8 C 8,3 C 88 % 1005,8 hPa 0,0 l/m 0 min 2 min 0 W/m 10,5 km/h (2 Bft)
17.11.2014 17:06 10,8 C 8,3 C 88 % 1005,8 hPa 0,0 l/m 0 min 2 min 0 W/m 10,5 km/h (2 Bft)
17.11.2014 17:08 10,8 C 8,3 C 88 % 1005,8 hPa 0,0 l/m 0 min 2 min 0 W/m 8,4 km/h (2 Bft)
17.11.2014 17:10 10,8 C 8,3 C 88 % 1005,8 hPa 0,0 l/m 0 min 2 min 0 W/m 10,5 km/h (2 Bft)
17.11.2014 17:12 10,8 C 8,3 C 88 % 1005,9 hPa 0,0 l/m 0 min 2 min 0 W/m 8,4 km/h (2 Bft)
17.11.2014 17:14 10,7 C 8,3 C 88 % 1005,9 hPa 0,0 l/m 0 min 0 min 0 W/m 10,5 km/h (2 Bft)
17.11.2014 17:16 10,7 C 8,3 C 89 % 1005,9 hPa 0,0 l/m 0 min 0 min 0 W/m 10,5 km/h (2 Bft)
17.11.2014 17:18 10,7 C 8,3 C 88 % 1005,9 hPa 0,0 l/m 0 min 0 min 0 W/m 8,4 km/h (2 Bft)
17.11.2014 17:20 10,7 C 8,3 C 89 % 1005,9 hPa 0,0 l/m 0 min 0 min 0 W/m 10,5 km/h (2 Bft)
17.11.2014 17:22 10,7 C 8,3 C 89 % 1005,9 hPa 0,0 l/m 0 min 0 min 0 W/m 6,3 km/h (2 Bft)
17.11.2014 17:24 10,7 C 8,3 C 89 % 1006,0 hPa 0,0 l/m 0 min 0 min 0 W/m 4,2 km/h (1 Bft)
17.11.2014 17:26 10,6 C 8,3 C 89 % 1006,0 hPa 0,0 l/m 0 min 0 min 0 W/m 4,2 km/h (1 Bft)
17.11.2014 17:28 10,6 C 8,3 C 89 % 1006,0 hPa 0,0 l/m 0 min 0 min 0 W/m 6,3 km/h (2 Bft)
17.11.2014 17:30 10,6 C 8,3 C 89 % 1006,1 hPa 0,0 l/m 0 min 0 min 0 W/m 4,2 km/h (1 Bft)
17.11.2014 17:32 10,6 C 8,3 C 89 % 1006,1 hPa 0,0 l/m 0 min 0 min 0 W/m 4,2 km/h (1 Bft)
17.11.2014 17:34 10,6 C 8,3 C 89 % 1006,0 hPa 0,0 l/m 0 min 0 min 0 W/m 6,3 km/h (2 Bft)
17.11.2014 17:36 10,6 C 8,3 C 89 % 1006,1 hPa 0,0 l/m 0 min 0 min 0 W/m 4,2 km/h (1 Bft)
17.11.2014 17:38 10,6 C 8,3 C 89 % 1006,1 hPa 0,0 l/m 0 min 0 min 0 W/m 4,2 km/h (1 Bft)
17.11.2014 17:40 10,5 C 8,3 C 89 % 1006,1 hPa 0,0 l/m 0 min 0 min 0 W/m 4,2 km/h (1 Bft)
17.11.2014 17:42 10,5 C 8,3 C 89 % 1006,2 hPa 0,0 l/m 0 min 0 min 0 W/m 6,3 km/h (2 Bft)
17.11.2014 17:44 10,5 C 8,3 C 89 % 1006,2 hPa 0,0 l/m 0 min 0 min 0 W/m 4,2 km/h (1 Bft)
17.11.2014 17:46 10,5 C 8,3 C 89 % 1006,2 hPa 0,0 l/m 0 min 0 min 0 W/m 6,3 km/h (2 Bft)
17.11.2014 17:48 10,4 C 7,8 C 89 % 1006,1 hPa 0,0 l/m 0 min 0 min 0 W/m 10,5 km/h (2 Bft)
17.11.2014 17:50 10,4 C 7,8 C 89 % 1006,1 hPa 0,0 l/m 0 min 0 min 0 W/m 10,5 km/h (2 Bft)
17.11.2014 17:52 10,4 C 7,8 C 89 % 1006,2 hPa 0,0 l/m 0 min 0 min 0 W/m 6,3 km/h (2 Bft)
17.11.2014 17:54 10,4 C 7,8 C 89 % 1006,2 hPa 0,0 l/m 0 min 0 min 0 W/m 6,3 km/h (2 Bft)
17.11.2014 17:56 10,4 C 7,8 C 89 % 1006,2 hPa 0,0 l/m 0 min 0 min 0 W/m 8,4 km/h (2 Bft)
17.11.2014 17:58 10,3 C 7,8 C 89 % 1006,1 hPa 0,0 l/m 0 min 0 min 0 W/m 10,5 km/h (2 Bft)
17.11.2014 18:00 10,3 C 7,8 C 90 % 1006,2 hPa 0,0 l/m 0 min 0 min 0 W/m 8,4 km/h (2 Bft)
17.11.2014 18:02 10,3 C 7,8 C 90 % 1006,2 hPa 0,0 l/m 0 min 0 min 0 W/m 12,6 km/h (3 Bft)
17.11.2014 18:06 10,3 C 7,8 C 90 % 1006,3 hPa 0,0 l/m 0 min 0 min 0 W/m 14,6 km/h (3 Bft)
17.11.2014 18:08 10,2 C 7,8 C 90 % 1006,3 hPa 0,0 l/m 0 min 0 min 0 W/m 10,5 km/h (2 Bft)
17.11.2014 18:10 10,2 C 7,8 C 90 % 1006,3 hPa 0,0 l/m 0 min 0 min 0 W/m 10,5 km/h (2 Bft)
17.11.2014 18:12 10,2 C 7,8 C 90 % 1006,3 hPa 0,0 l/m 0 min 0 min 0 W/m 6,3 km/h (2 Bft)
17.11.2014 18:14 10,2 C 7,8 C 90 % 1006,3 hPa 0,0 l/m 0 min 0 min 0 W/m 10,5 km/h (2 Bft)
17.11.2014 18:16 10,2 C 7,8 C 90 % 1006,2 hPa 0,0 l/m 0 min 0 min 0 W/m 10,5 km/h (2 Bft)
17.11.2014 18:18 10,2 C 7,8 C 90 % 1006,3 hPa 0,0 l/m 0 min 0 min 0 W/m 4,2 km/h (1 Bft)
17.11.2014 18:20 10,1 C 7,8 C 90 % 1006,3 hPa 0,0 l/m 0 min 0 min 0 W/m 4,2 km/h (1 Bft)
17.11.2014 18:22 10,1 C 7,8 C 90 % 1006,3 hPa 0,0 l/m 0 min 0 min 0 W/m 6,3 km/h (2 Bft)
17.11.2014 18:24 10,1 C 7,8 C 90 % 1006,4 hPa 0,0 l/m 0 min 0 min 0 W/m 6,3 km/h (2 Bft)
17.11.2014 18:26 10,1 C 7,8 C 90 % 1006,3 hPa 0,0 l/m 0 min 0 min 0 W/m 4,2 km/h (1 Bft)
17.11.2014 18:28 10,1 C 7,8 C 90 % 1006,4 hPa 0,0 l/m 0 min 0 min 0 W/m 10,5 km/h (2 Bft)
17.11.2014 18:30 10,1 C 7,8 C 90 % 1006,4 hPa 0,0 l/m 0 min 0 min 0 W/m 10,5 km/h (2 Bft)
17.11.2014 18:32 10,1 C 7,8 C 90 % 1006,5 hPa 0,0 l/m 0 min 0 min 0 W/m 12,6 km/h (3 Bft)
17.11.2014 18:34 10,1 C 7,8 C 90 % 1006,4 hPa 0,0 l/m 0 min 0 min 0 W/m 8,4 km/h (2 Bft)
17.11.2014 18:36 10,0 C 7,8 C 90 % 1006,5 hPa 0,0 l/m 0 min 0 min 0 W/m 12,6 km/h (3 Bft)
17.11.2014 18:38 10,0 C 7,8 C 90 % 1006,4 hPa 0,0 l/m 0 min 0 min 0 W/m 10,5 km/h (2 Bft)
17.11.2014 18:40 10,0 C 7,8 C 90 % 1006,5 hPa 0,0 l/m 0 min 0 min 0 W/m 10,5 km/h (2 Bft)
17.11.2014 18:42 10,0 C 7,8 C 90 % 1006,5 hPa 0,0 l/m 0 min 0 min 0 W/m 6,3 km/h (2 Bft)
17.11.2014 18:44 10,0 C 7,8 C 90 % 1006,5 hPa 0,0 l/m 0 min 0 min 0 W/m 10,5 km/h (2 Bft)
17.11.2014 18:46 10,0 C 7,8 C 90 % 1006,5 hPa 0,0 l/m 0 min 0 min 0 W/m 4,2 km/h (1 Bft)
17.11.2014 18:48 10,0 C 7,8 C 90 % 1006,5 hPa 0,0 l/m 0 min 0 min 0 W/m 8,4 km/h (2 Bft)
17.11.2014 18:50 10,0 C 7,8 C 90 % 1006,4 hPa 0,0 l/m 0 min 0 min 0 W/m 6,3 km/h (2 Bft)
17.11.2014 18:52 9,9 C 7,8 C 90 % 1006,5 hPa 0,0 l/m 0 min 0 min 0 W/m 6,3 km/h (2 Bft)
17.11.2014 18:54 9,9 C 7,8 C 90 % 1006,5 hPa 0,0 l/m 0 min 0 min 0 W/m 6,3 km/h (2 Bft)
17.11.2014 18:56 9,9 C 7,8 C 90 % 1006,5 hPa 0,0 l/m 0 min 0 min 0 W/m 6,3 km/h (2 Bft)
17.11.2014 18:58 9,9 C 7,8 C 90 % 1006,5 hPa 0,0 l/m 0 min 0 min 0 W/m 6,3 km/h (2 Bft)
17.11.2014 19:00 9,9 C 7,8 C 90 % 1006,5 hPa 0,0 l/m 0 min 0 min 0 W/m 6,3 km/h (2 Bft)
17.11.2014 19:02 9,9 C 7,8 C 90 % 1006,5 hPa 0,0 l/m 0 min 0 min 0 W/m 6,3 km/h (2 Bft)
17.11.2014 19:04 9,9 C 7,8 C 90 % 1006,5 hPa 0,0 l/m 0 min 0 min 0 W/m 6,3 km/h (2 Bft)
17.11.2014 19:06 9,9 C 7,8 C 90 % 1006,5 hPa 0,0 l/m 0 min 0 min 0 W/m 6,3 km/h (2 Bft)
17.11.2014 19:08 9,9 C 7,8 C 90 % 1006,5 hPa 0,0 l/m 0 min 0 min 0 W/m 4,2 km/h (1 Bft)
17.11.2014 19:10 9,9 C 7,8 C 90 % 1006,5 hPa 0,0 l/m 0 min 0 min 0 W/m 4,2 km/h (1 Bft)
17.11.2014 19:12 9,9 C 7,8 C 90 % 1006,6 hPa 0,0 l/m 0 min 0 min 0 W/m 10,5 km/h (2 Bft)
17.11.2014 19:14 9,9 C 7,8 C 90 % 1006,6 hPa 0,0 l/m 0 min 0 min 0 W/m 10,5 km/h (2 Bft)
17.11.2014 19:16 9,9 C 7,8 C 90 % 1006,6 hPa 0,0 l/m 0 min 0 min 0 W/m 10,5 km/h (2 Bft)
17.11.2014 19:18 9,9 C 7,8 C 90 % 1006,6 hPa 0,0 l/m 0 min 0 min 0 W/m 10,5 km/h (2 Bft)
17.11.2014 19:20 9,9 C 7,8 C 90 % 1006,6 hPa 0,0 l/m 0 min 0 min 0 W/m 10,5 km/h (2 Bft)
17.11.2014 19:22 9,9 C 7,8 C 90 % 1006,6 hPa 0,0 l/m 0 min 0 min 0 W/m 10,5 km/h (2 Bft)
17.11.2014 19:24 9,9 C 7,8 C 90 % 1006,7 hPa 0,0 l/m 0 min 0 min 0 W/m 8,4 km/h (2 Bft)
17.11.2014 19:26 9,8 C 7,8 C 90 % 1006,7 hPa 0,0 l/m 0 min 0 min 0 W/m 10,5 km/h (2 Bft)
17.11.2014 19:28 9,8 C 7,8 C 90 % 1006,8 hPa 0,0 l/m 0 min 0 min 0 W/m 10,5 km/h (2 Bft)
17.11.2014 19:30 9,8 C 7,8 C 90 % 1006,7 hPa 0,0 l/m 0 min 0 min 0 W/m 6,3 km/h (2 Bft)
17.11.2014 19:32 9,8 C 7,8 C 90 % 1006,8 hPa 0,0 l/m 0 min 0 min 0 W/m 6,3 km/h (2 Bft)
17.11.2014 19:34 9,8 C 7,8 C 90 % 1006,8 hPa 0,0 l/m 0 min 0 min 0 W/m 6,3 km/h (2 Bft)
17.11.2014 19:36 9,8 C 7,8 C 90 % 1006,8 hPa 0,0 l/m 0 min 0 min 0 W/m 6,3 km/h (2 Bft)
17.11.2014 19:38 9,8 C 7,8 C 90 % 1006,8 hPa 0,0 l/m 0 min 0 min 0 W/m 2,1 km/h (1 Bft)
17.11.2014 19:40 9,8 C 7,8 C 90 % 1006,8 hPa 0,0 l/m 0 min 0 min 0 W/m 4,2 km/h (1 Bft)
17.11.2014 19:42 9,8 C 7,8 C 90 % 1006,8 hPa 0,0 l/m 0 min 0 min 0 W/m 4,2 km/h (1 Bft)
17.11.2014 19:44 9,8 C 7,8 C 90 % 1006,8 hPa 0,0 l/m 0 min 0 min 0 W/m 6,3 km/h (2 Bft)
17.11.2014 19:46 9,8 C 7,8 C 90 % 1006,9 hPa 0,0 l/m 0 min 0 min 0 W/m 4,2 km/h (1 Bft)
17.11.2014 19:48 9,8 C 7,8 C 90 % 1006,9 hPa 0,0 l/m 0 min 0 min 0 W/m 4,2 km/h (1 Bft)
17.11.2014 19:50 9,8 C 7,8 C 90 % 1006,9 hPa 0,0 l/m 0 min 0 min 0 W/m 4,2 km/h (1 Bft)
17.11.2014 19:52 9,8 C 7,8 C 90 % 1007,0 hPa 0,0 l/m 0 min 0 min 0 W/m 2,1 km/h (1 Bft)
17.11.2014 19:54 9,7 C 7,8 C 90 % 1007,0 hPa 0,0 l/m 0 min 0 min 0 W/m 2,1 km/h (1 Bft)
17.11.2014 19:56 9,7 C 7,8 C 90 % 1007,1 hPa 0,0 l/m 0 min 0 min 0 W/m 4,2 km/h (1 Bft)
17.11.2014 19:58 9,7 C 7,8 C 90 % 1007,0 hPa 0,0 l/m 0 min 0 min 0 W/m 2,1 km/h (1 Bft)
17.11.2014 20:00 9,7 C 7,8 C 90 % 1007,0 hPa 0,0 l/m 0 min 0 min 0 W/m 4,2 km/h (1 Bft)
17.11.2014 20:02 9,7 C 7,8 C 90 % 1007,1 hPa 0,0 l/m 0 min 0 min 0 W/m 6,3 km/h (2 Bft)
17.11.2014 20:04 9,7 C 7,8 C 90 % 1007,1 hPa 0,0 l/m 0 min 0 min 0 W/m 4,2 km/h (1 Bft)
17.11.2014 20:06 9,7 C 7,8 C 90 % 1007,1 hPa 0,0 l/m 0 min 0 min 0 W/m 4,2 km/h (1 Bft)
17.11.2014 20:08 9,7 C 7,8 C 90 % 1007,1 hPa 0,0 l/m 0 min 0 min 0 W/m 2,1 km/h (1 Bft)
17.11.2014 20:10 9,7 C 7,8 C 90 % 1007,1 hPa 0,0 l/m 0 min 0 min 0 W/m 4,2 km/h (1 Bft)
17.11.2014 20:12 9,7 C 7,8 C 90 % 1007,1 hPa 0,0 l/m 0 min 0 min 0 W/m 4,2 km/h (1 Bft)
17.11.2014 20:14 9,7 C 7,8 C 90 % 1007,1 hPa 0,0 l/m 0 min 0 min 0 W/m 4,2 km/h (1 Bft)
17.11.2014 20:16 9,6 C 7,8 C 91 % 1007,1 hPa 0,0 l/m 0 min 0 min 0 W/m 4,2 km/h (1 Bft)
17.11.2014 20:18 9,6 C 7,8 C 91 % 1007,1 hPa 0,0 l/m 0 min 0 min 0 W/m 2,1 km/h (1 Bft)
17.11.2014 20:20 9,6 C 7,8 C 91 % 1007,1 hPa 0,0 l/m 0 min 0 min 0 W/m 4,2 km/h (1 Bft)
17.11.2014 20:22 9,6 C 7,8 C 91 % 1007,1 hPa 0,0 l/m 0 min 0 min 0 W/m 2,1 km/h (1 Bft)
17.11.2014 20:24 9,6 C 7,8 C 91 % 1007,1 hPa 0,0 l/m 0 min 0 min 0 W/m 0,0 km/h (0 Bft)
17.11.2014 20:26 9,6 C 7,8 C 91 % 1007,1 hPa 0,0 l/m 0 min 0 min 0 W/m 2,1 km/h (1 Bft)
17.11.2014 20:28 9,6 C 7,8 C 91 % 1007,1 hPa 0,0 l/m 0 min 0 min 0 W/m 2,1 km/h (1 Bft)
17.11.2014 20:30 9,6 C 7,8 C 91 % 1007,0 hPa 0,0 l/m 0 min 0 min 0 W/m 2,1 km/h (1 Bft)
17.11.2014 20:32 9,6 C 7,8 C 90 % 1007,0 hPa 0,0 l/m 0 min 0 min 0 W/m 4,2 km/h (1 Bft)
17.11.2014 20:34 9,6 C 7,8 C 90 % 1007,1 hPa 0,0 l/m 0 min 0 min 0 W/m 4,2 km/h (1 Bft)
17.11.2014 20:36 9,6 C 7,8 C 90 % 1007,1 hPa 0,0 l/m 0 min 0 min 0 W/m 4,2 km/h (1 Bft)
17.11.2014 20:38 9,5 C 7,8 C 90 % 1007,0 hPa 0,0 l/m 0 min 0 min 0 W/m 6,3 km/h (2 Bft)
17.11.2014 20:40 9,5 C 7,2 C 91 % 1007,0 hPa 0,0 l/m 0 min 0 min 0 W/m 2,1 km/h (1 Bft)
17.11.2014 20:42 9,5 C 7,2 C 91 % 1007,1 hPa 0,0 l/m 0 min 0 min 0 W/m 4,2 km/h (1 Bft)
17.11.2014 20:44 9,5 C 7,2 C 91 % 1007,1 hPa 0,0 l/m 0 min 0 min 0 W/m 4,2 km/h (1 Bft)
17.11.2014 20:46 9,5 C 7,2 C 91 % 1007,2 hPa 0,0 l/m 0 min 0 min 0 W/m 4,2 km/h (1 Bft)
17.11.2014 20:48 9,4 C 7,2 C 91 % 1007,2 hPa 0,0 l/m 0 min 0 min 0 W/m 6,3 km/h (2 Bft)
17.11.2014 20:50 9,4 C 7,2 C 91 % 1007,2 hPa 0,0 l/m 0 min 0 min 0 W/m 4,2 km/h (1 Bft)
17.11.2014 20:52 9,4 C 7,2 C 91 % 1007,2 hPa 0,0 l/m 0 min 0 min 0 W/m 2,1 km/h (1 Bft)
17.11.2014 20:54 9,4 C 7,2 C 91 % 1007,2 hPa 0,0 l/m 0 min 0 min 0 W/m 4,2 km/h (1 Bft)
17.11.2014 20:56 9,4 C 7,2 C 91 % 1007,2 hPa 0,0 l/m 0 min 0 min 0 W/m 4,2 km/h (1 Bft)
17.11.2014 20:58 9,4 C 7,2 C 91 % 1007,3 hPa 0,0 l/m 0 min 0 min 0 W/m 4,2 km/h (1 Bft)
17.11.2014 21:00 9,4 C 7,2 C 91 % 1007,3 hPa 0,0 l/m 0 min 0 min 0 W/m 2,1 km/h (1 Bft)
17.11.2014 21:02 9,4 C 7,2 C 91 % 1007,3 hPa 0,0 l/m 0 min 0 min 0 W/m 2,1 km/h (1 Bft)
17.11.2014 21:04 9,3 C 7,2 C 91 % 1007,3 hPa 0,0 l/m 0 min 0 min 0 W/m 2,1 km/h (1 Bft)
17.11.2014 21:06 9,3 C 7,2 C 91 % 1007,3 hPa 0,0 l/m 0 min 0 min 0 W/m 2,1 km/h (1 Bft)
17.11.2014 21:08 9,3 C 7,2 C 91 % 1007,3 hPa 0,0 l/m 0 min 0 min 0 W/m 2,1 km/h (1 Bft)
17.11.2014 21:10 9,3 C 7,2 C 91 % 1007,3 hPa 0,0 l/m 0 min 0 min 0 W/m 2,1 km/h (1 Bft)
17.11.2014 21:12 9,3 C 7,2 C 91 % 1007,3 hPa 0,0 l/m 0 min 0 min 0 W/m 4,2 km/h (1 Bft)
17.11.2014 21:14 9,3 C 7,2 C 91 % 1007,3 hPa 0,0 l/m 0 min 0 min 0 W/m 2,1 km/h (1 Bft)
17.11.2014 21:16 9,3 C 7,2 C 91 % 1007,3 hPa 0,0 l/m 0 min 0 min 0 W/m 4,2 km/h (1 Bft)
17.11.2014 21:18 9,2 C 7,2 C 91 % 1007,3 hPa 0,0 l/m 0 min 0 min 0 W/m 4,2 km/h (1 Bft)
17.11.2014 21:20 9,2 C 7,2 C 91 % 1007,3 hPa 0,0 l/m 0 min 0 min 0 W/m 4,2 km/h (1 Bft)
17.11.2014 21:22 9,2 C 7,2 C 91 % 1007,3 hPa 0,0 l/m 0 min 0 min 0 W/m 4,2 km/h (1 Bft)
17.11.2014 21:24 9,2 C 7,2 C 91 % 1007,3 hPa 0,0 l/m 0 min 0 min 0 W/m 4,2 km/h (1 Bft)
17.11.2014 21:26 9,2 C 7,2 C 91 % 1007,3 hPa 0,0 l/m 0 min 0 min 0 W/m 2,1 km/h (1 Bft)
17.11.2014 21:28 9,2 C 7,2 C 91 % 1007,3 hPa 0,0 l/m 0 min 0 min 0 W/m 2,1 km/h (1 Bft)
17.11.2014 21:30 9,2 C 7,2 C 91 % 1007,3 hPa 0,0 l/m 0 min 0 min 0 W/m 4,2 km/h (1 Bft)
17.11.2014 21:32 9,2 C 7,2 C 91 % 1007,3 hPa 0,0 l/m 0 min 0 min 0 W/m 4,2 km/h (1 Bft)
17.11.2014 21:34 9,1 C 6,7 C 91 % 1007,3 hPa 0,0 l/m 0 min 0 min 0 W/m 4,2 km/h (1 Bft)
17.11.2014 21:36 9,1 C 6,7 C 91 % 1007,3 hPa 0,0 l/m 0 min 0 min 0 W/m 4,2 km/h (1 Bft)
17.11.2014 21:38 9,1 C 6,7 C 91 % 1007,3 hPa 0,0 l/m 0 min 0 min 0 W/m 4,2 km/h (1 Bft)
17.11.2014 21:40 9,1 C 6,7 C 91 % 1007,3 hPa 0,0 l/m 0 min 0 min 0 W/m 4,2 km/h (1 Bft)
17.11.2014 21:42 9,1 C 6,7 C 91 % 1007,3 hPa 0,0 l/m 0 min 0 min 0 W/m 4,2 km/h (1 Bft)
17.11.2014 21:44 9,0 C 6,7 C 91 % 1007,3 hPa 0,0 l/m 0 min 0 min 0 W/m 6,3 km/h (2 Bft)
17.11.2014 21:46 9,0 C 6,7 C 91 % 1007,4 hPa 0,0 l/m 0 min 0 min 0 W/m 6,3 km/h (2 Bft)
17.11.2014 21:48 9,0 C 6,7 C 91 % 1007,4 hPa 0,0 l/m 0 min 0 min 0 W/m 6,3 km/h (2 Bft)
17.11.2014 21:50 9,0 C 6,7 C 91 % 1007,4 hPa 0,0 l/m 0 min 0 min 0 W/m 4,2 km/h (1 Bft)
17.11.2014 21:52 8,9 C 6,7 C 91 % 1007,4 hPa 0,0 l/m 0 min 0 min 0 W/m 4,2 km/h (1 Bft)
17.11.2014 21:54 8,9 C 6,7 C 91 % 1007,4 hPa 0,0 l/m 0 min 0 min 0 W/m 4,2 km/h (1 Bft)
17.11.2014 21:56 8,9 C 6,7 C 91 % 1007,3 hPa 0,0 l/m 0 min 0 min 0 W/m 4,2 km/h (1 Bft)
17.11.2014 21:58 8,9 C 6,7 C 91 % 1007,3 hPa 0,0 l/m 0 min 0 min 0 W/m 6,3 km/h (2 Bft)
17.11.2014 22:00 8,8 C 6,7 C 91 % 1007,3 hPa 0,0 l/m 0 min 0 min 0 W/m 6,3 km/h (2 Bft)
17.11.2014 22:02 8,8 C 6,7 C 91 % 1007,3 hPa 0,0 l/m 0 min 0 min 0 W/m 4,2 km/h (1 Bft)
17.11.2014 22:04 8,8 C 6,7 C 91 % 1007,3 hPa 0,0 l/m 0 min 0 min 0 W/m 4,2 km/h (1 Bft)
17.11.2014 22:06 8,8 C 6,7 C 91 % 1007,3 hPa 0,0 l/m 0 min 0 min 0 W/m 4,2 km/h (1 Bft)
17.11.2014 22:08 8,8 C 6,7 C 91 % 1007,3 hPa 0,0 l/m 0 min 0 min 0 W/m 4,2 km/h (1 Bft)
17.11.2014 22:10 8,7 C 6,7 C 91 % 1007,3 hPa 0,0 l/m 0 min 0 min 0 W/m 6,3 km/h (2 Bft)
17.11.2014 22:12 8,7 C 6,7 C 91 % 1007,3 hPa 0,0 l/m 0 min 0 min 0 W/m 4,2 km/h (1 Bft)
17.11.2014 22:14 8,7 C 6,7 C 92 % 1007,3 hPa 0,0 l/m 0 min 0 min 0 W/m 2,1 km/h (1 Bft)
17.11.2014 22:16 8,7 C 6,7 C 92 % 1007,3 hPa 0,0 l/m 0 min 0 min 0 W/m 4,2 km/h (1 Bft)
17.11.2014 22:18 8,7 C 6,7 C 92 % 1007,3 hPa 0,0 l/m 0 min 0 min 0 W/m 4,2 km/h (1 Bft)
17.11.2014 22:20 8,7 C 6,7 C 92 % 1007,3 hPa 0,0 l/m 0 min 0 min 0 W/m 4,2 km/h (1 Bft)
17.11.2014 22:22 8,6 C 6,7 C 92 % 1007,3 hPa 0,0 l/m 0 min 0 min 0 W/m 4,2 km/h (1 Bft)
17.11.2014 22:24 8,6 C 6,7 C 92 % 1007,3 hPa 0,0 l/m 0 min 0 min 0 W/m 4,2 km/h (1 Bft)
17.11.2014 22:26 8,6 C 6,7 C 92 % 1007,3 hPa 0,0 l/m 0 min 0 min 0 W/m 4,2 km/h (1 Bft)
17.11.2014 22:28 8,6 C 6,7 C 92 % 1007,3 hPa 0,0 l/m 0 min 0 min 0 W/m 4,2 km/h (1 Bft)
17.11.2014 22:30 8,6 C 6,7 C 92 % 1007,2 hPa 0,0 l/m 0 min 0 min 0 W/m 6,3 km/h (2 Bft)
17.11.2014 22:32 8,6 C 6,7 C 92 % 1007,2 hPa 0,0 l/m 0 min 0 min 0 W/m 6,3 km/h (2 Bft)
17.11.2014 22:34 8,5 C 6,7 C 92 % 1007,2 hPa 0,0 l/m 0 min 0 min 0 W/m 6,3 km/h (2 Bft)
17.11.2014 22:36 8,5 C 6,7 C 92 % 1007,3 hPa 0,0 l/m 0 min 0 min 0 W/m 6,3 km/h (2 Bft)
17.11.2014 22:38 8,5 C 6,7 C 92 % 1007,3 hPa 0,0 l/m 0 min 0 min 0 W/m 6,3 km/h (2 Bft)
17.11.2014 22:40 8,5 C 6,7 C 92 % 1007,3 hPa 0,0 l/m 0 min 0 min 0 W/m 4,2 km/h (1 Bft)
17.11.2014 22:42 8,5 C 6,7 C 92 % 1007,3 hPa 0,0 l/m 0 min 0 min 0 W/m 4,2 km/h (1 Bft)
17.11.2014 22:44 8,4 C 6,7 C 92 % 1007,2 hPa 0,0 l/m 0 min 0 min 0 W/m 6,3 km/h (2 Bft)
17.11.2014 22:46 8,4 C 6,7 C 92 % 1007,3 hPa 0,0 l/m 0 min 0 min 0 W/m 6,3 km/h (2 Bft)
17.11.2014 22:48 8,4 C 6,7 C 92 % 1007,3 hPa 0,0 l/m 0 min 0 min 0 W/m 4,2 km/h (1 Bft)
17.11.2014 22:50 8,4 C 6,7 C 92 % 1007,2 hPa 0,0 l/m 0 min 0 min 0 W/m 4,2 km/h (1 Bft)
17.11.2014 22:52 8,4 C 6,7 C 92 % 1007,3 hPa 0,0 l/m 0 min 0 min 0 W/m 4,2 km/h (1 Bft)
17.11.2014 22:54 8,4 C 6,7 C 92 % 1007,2 hPa 0,0 l/m 0 min 0 min 0 W/m 4,2 km/h (1 Bft)
17.11.2014 22:56 8,4 C 6,1 C 92 % 1007,2 hPa 0,0 l/m 0 min 0 min 0 W/m 4,2 km/h (1 Bft)
17.11.2014 22:58 8,4 C 6,1 C 92 % 1007,2 hPa 0,0 l/m 0 min 0 min 0 W/m 4,2 km/h (1 Bft)
17.11.2014 23:00 8,4 C 6,1 C 92 % 1007,2 hPa 0,0 l/m 0 min 0 min 0 W/m 4,2 km/h (1 Bft)
17.11.2014 23:02 8,3 C 6,1 C 92 % 1007,1 hPa 0,0 l/m 0 min 0 min 0 W/m 4,2 km/h (1 Bft)
17.11.2014 23:04 8,3 C 6,1 C 92 % 1007,2 hPa 0,0 l/m 0 min 0 min 0 W/m 4,2 km/h (1 Bft)
17.11.2014 23:06 8,3 C 6,1 C 92 % 1007,2 hPa 0,0 l/m 0 min 0 min 0 W/m 4,2 km/h (1 Bft)
17.11.2014 23:08 8,3 C 6,1 C 92 % 1007,2 hPa 0,0 l/m 0 min 0 min 0 W/m 4,2 km/h (1 Bft)
17.11.2014 23:10 8,3 C 6,1 C 92 % 1007,2 hPa 0,0 l/m 0 min 0 min 0 W/m 4,2 km/h (1 Bft)
17.11.2014 23:12 8,3 C 6,1 C 92 % 1007,3 hPa 0,0 l/m 0 min 0 min 0 W/m 4,2 km/h (1 Bft)
17.11.2014 23:14 8,2 C 6,1 C 93 % 1007,3 hPa 0,0 l/m 0 min 0 min 0 W/m 4,2 km/h (1 Bft)
17.11.2014 23:16 8,2 C 6,1 C 93 % 1007,3 hPa 0,0 l/m 0 min 0 min 0 W/m 4,2 km/h (1 Bft)
17.11.2014 23:18 8,2 C 6,1 C 93 % 1007,3 hPa 0,0 l/m 0 min 0 min 0 W/m 4,2 km/h (1 Bft)
17.11.2014 23:20 8,2 C 6,1 C 93 % 1007,3 hPa 0,0 l/m 0 min 0 min 0 W/m 4,2 km/h (1 Bft)
17.11.2014 23:22 8,2 C 6,1 C 93 % 1007,2 hPa 0,0 l/m 0 min 0 min 0 W/m 4,2 km/h (1 Bft)
17.11.2014 23:24 8,1 C 5,6 C 93 % 1007,3 hPa 0,0 l/m 0 min 0 min 0 W/m 4,2 km/h (1 Bft)
17.11.2014 23:26 8,1 C 5,6 C 93 % 1007,2 hPa 0,0 l/m 0 min 0 min 0 W/m 4,2 km/h (1 Bft)
17.11.2014 23:28 8,1 C 5,6 C 93 % 1007,2 hPa 0,0 l/m 0 min 0 min 0 W/m 4,2 km/h (1 Bft)
17.11.2014 23:30 8,1 C 5,6 C 93 % 1007,2 hPa 0,0 l/m 0 min 0 min 0 W/m 2,1 km/h (1 Bft)
17.11.2014 23:32 8,1 C 5,6 C 93 % 1007,2 hPa 0,0 l/m 0 min 0 min 0 W/m 2,1 km/h (1 Bft)
17.11.2014 23:34 8,0 C 5,6 C 93 % 1007,3 hPa 0,0 l/m 0 min 0 min 0 W/m 0,0 km/h (0 Bft)
17.11.2014 23:36 7,9 C 5,6 C 93 % 1007,3 hPa 0,0 l/m 0 min 0 min 0 W/m 2,1 km/h (1 Bft)
17.11.2014 23:38 7,9 C 5,6 C 93 % 1007,2 hPa 0,0 l/m 0 min 0 min 0 W/m 2,1 km/h (1 Bft)
17.11.2014 23:40 7,9 C 5,6 C 93 % 1007,3 hPa 0,0 l/m 0 min 0 min 0 W/m 2,1 km/h (1 Bft)
17.11.2014 23:42 7,8 C 5,6 C 93 % 1007,3 hPa 0,0 l/m 0 min 0 min 0 W/m 2,1 km/h (1 Bft)
17.11.2014 23:44 7,8 C 5,0 C 93 % 1007,3 hPa 0,0 l/m 0 min 0 min 0 W/m 2,1 km/h (1 Bft)
17.11.2014 23:46 7,8 C 5,0 C 93 % 1007,3 hPa 0,0 l/m 0 min 0 min 0 W/m 2,1 km/h (1 Bft)
17.11.2014 23:48 7,7 C 5,0 C 93 % 1007,4 hPa 0,0 l/m 0 min 0 min 0 W/m 2,1 km/h (1 Bft)
17.11.2014 23:50 7,7 C 5,0 C 93 % 1007,5 hPa 0,0 l/m 0 min 0 min 0 W/m 0,0 km/h (0 Bft)
17.11.2014 23:52 7,7 C 5,0 C 93 % 1007,5 hPa 0,0 l/m 0 min 0 min 0 W/m 0,0 km/h (0 Bft)
17.11.2014 23:54 7,6 C 5,0 C 93 % 1007,5 hPa 0,0 l/m 0 min 0 min 0 W/m 0,0 km/h (0 Bft)
17.11.2014 23:56 7,6 C 5,0 C 92 % 1007,5 hPa 0,0 l/m 0 min 0 min 0 W/m 0,0 km/h (0 Bft)
17.11.2014 23:58 7,5 C 5,0 C 92 % 1007,5 hPa 0,0 l/m 0 min 0 min 0 W/m 0,0 km/h (0 Bft)
_ Min-Zeit 23:58 23:44 14:02 00:00 - - - - 20:24
Minimum _ 7,5 C 5,0 C 84 % 1000,6 hPa - - - - 0,0 km/h (0 Bft)
_ Max-Zeit 13:42 13:04 00:00 23:50 05:36 10:44 05:34 10:52 10:54
Maximum _ 11,6 C 10,6 C 99 % 1007,5 hPa 0,2 l/m 2 min 2 min 342 W/m 31,4 km/h
S (5 Bft)
Durchschnitt _ 9,4 C 7,8 C 93 % 1004,3 hPa #0,4 l/m #58 min. #34 min. 94 W/m 12,7 km/h (3 Bft)
© 2015 W. Hausmann